| time (UTC) | temp F | wind direction | speed knots | gust knots | rain 1hr in | rain 24hr in | rain mn in | humidity % | barometer mb |
| 20260505000219 | 75 | 187 | 7.0 | 12.2 | 0.00 | 0.00 | 0.00 | 46 | 1011.2 |
| 20260505000126 | 75 | 184 | 7.0 | 12.2 | 0.00 | 0.00 | 0.00 | 46 | 1011.2 |
| 20260505000014 | 75 | 171 | 7.8 | 12.2 | 0.00 | 0.00 | 0.00 | 46 | 1011.2 |
| 20260504235923 | 75 | 207 | 7.0 | 11.3 | 0.00 | 0.00 | 0.00 | 46 | 1011.2 |
| 20260504235815 | 75 | 196 | 5.2 | 11.3 | 0.00 | 0.00 | 0.00 | 47 | 1011.1 |
| 20260504235743 | 75 | 179 | 5.2 | 11.3 | 0.00 | 0.00 | 0.00 | 46 | 1011.1 |
| 20260504235610 | 75 | 178 | 6.1 | 11.3 | 0.00 | 0.00 | 0.00 | 47 | 1011.2 |
| 20260504235519 | 75 | 208 | 5.2 | 11.3 | 0.00 | 0.00 | 0.00 | 46 | 1011.1 |
| 20260504235426 | 76 | 223 | 5.2 | 11.3 | 0.00 | 0.00 | 0.00 | 47 | 1011.1 |
| 20260504235318 | 76 | 202 | 6.1 | 11.3 | 0.00 | 0.00 | 0.00 | 47 | 1011.1 |
| 20260504235225 | 76 | 212 | 7.8 | 11.3 | 0.00 | 0.00 | 0.00 | 46 | 1011.1 |
| 20260504235153 | 76 | 184 | 7.0 | 10.4 | 0.00 | 0.00 | 0.00 | 46 | 1011.2 |
| 20260504235102 | 76 | 171 | 7.0 | 12.2 | 0.00 | 0.00 | 0.00 | 46 | 1011.2 |
| 20260504234814 | 76 | 167 | 5.2 | 12.2 | 0.00 | 0.00 | 0.00 | 46 | 1011.2 |
| 20260504234741 | 76 | 83 | 5.2 | 12.2 | 0.00 | 0.00 | 0.00 | 46 | 1011.2 |
| 20260504234612 | 76 | 171 | 7.0 | 12.2 | 0.00 | 0.00 | 0.00 | 46 | 1011.2 |
| 20260504234540 | 76 | 173 | 7.0 | 12.2 | 0.00 | 0.00 | 0.00 | 46 | 1011.2 |
| 20260504234426 | 76 | 211 | 7.0 | 12.2 | 0.00 | 0.00 | 0.00 | 46 | 1011.2 |
| 20260504234333 | 76 | 215 | 7.0 | 12.2 | 0.00 | 0.00 | 0.00 | 45 | 1011.3 |
| 20260504234239 | 76 | 175 | 6.1 | 13.0 | 0.00 | 0.00 | 0.00 | 45 | 1011.1 |
| 20260504234146 | 76 | 196 | 6.1 | 10.4 | 0.00 | 0.00 | 0.00 | 45 | 1011.1 |
| 20260504234012 | 76 | 190 | 7.0 | 10.4 | 0.00 | 0.00 | 0.00 | 45 | 1011.1 |
| 20260504233924 | 76 | 159 | 7.0 | 10.4 | 0.00 | 0.00 | 0.00 | 45 | 1011.1 |
| 20260504233811 | 76 | 165 | 5.2 | 13.9 | 0.00 | 0.00 | 0.00 | 45 | 1011.1 |
| 20260504233739 | 76 | 186 | 5.2 | 13.9 | 0.00 | 0.00 | 0.00 | 45 | 1011.1 |
| 20260504233708 | 76 | 180 | 6.1 | 13.9 | 0.00 | 0.00 | 0.00 | 45 | 1011.1 |
| 20260504233618 | 76 | 155 | 7.8 | 13.9 | 0.00 | 0.00 | 0.00 | 45 | 1011.1 |
| 20260504233314 | 77 | 197 | 7.8 | 13.9 | 0.00 | 0.00 | 0.00 | 44 | 1011.2 |
| 20260504233221 | 77 | 183 | 7.8 | 13.9 | 0.00 | 0.00 | 0.00 | 44 | 1011.2 |
| 20260504233128 | 77 | 182 | 8.7 | 13.9 | 0.00 | 0.00 | 0.00 | 45 | 1011.2 |
| 20260504233015 | 77 | 212 | 7.8 | 13.9 | 0.00 | 0.00 | 0.00 | 44 | 1011.1 |
| 20260504232924 | 77 | 202 | 7.8 | 13.9 | 0.00 | 0.00 | 0.00 | 44 | 1011.1 |
| 20260504232814 | 77 | 222 | 6.1 | 12.2 | 0.00 | 0.00 | 0.00 | 44 | 1011.2 |
| 20260504232722 | 77 | 216 | 7.0 | 12.2 | 0.00 | 0.00 | 0.00 | 45 | 1011.2 |
| 20260504232610 | 77 | 218 | 7.8 | 12.2 | 0.00 | 0.00 | 0.00 | 45 | 1011.2 |
| 20260504232538 | 77 | 206 | 7.0 | 12.2 | 0.00 | 0.00 | 0.00 | 45 | 1011.2 |
| 20260504232423 | 77 | 167 | 5.2 | 12.2 | 0.00 | 0.00 | 0.00 | 45 | 1011.2 |
| 20260504232310 | 77 | 220 | 4.3 | 12.2 | 0.00 | 0.00 | 0.00 | 44 | 1011.2 |
| 20260504232221 | 77 | 192 | 6.1 | 12.2 | 0.00 | 0.00 | 0.00 | 44 | 1011.2 |
| 20260504232129 | 77 | 175 | 7.8 | 12.2 | 0.00 | 0.00 | 0.00 | 44 | 1011.3 |
| 20260504232100 | 77 | 196 | 7.8 | 12.2 | 0.00 | 0.00 | 0.00 | 43 | 1011.3 |
| 20260504231814 | 77 | 180 | 8.7 | 12.2 | 0.00 | 0.00 | 0.00 | 43 | 1011.3 |
| 20260504231721 | 77 | 181 | 7.0 | 11.3 | 0.00 | 0.00 | 0.00 | 44 | 1011.3 |
| 20260504231612 | 77 | 205 | 6.1 | 11.3 | 0.00 | 0.00 | 0.00 | 44 | 1011.3 |
| 20260504231520 | 77 | 171 | 6.1 | 14.8 | 0.00 | 0.00 | 0.00 | 43 | 1011.3 |
| 20260504231428 | 77 | 197 | 6.1 | 15.6 | 0.00 | 0.00 | 0.00 | 43 | 1011.3 |
| 20260504231315 | 77 | 211 | 5.2 | 15.6 | 0.00 | 0.00 | 0.00 | 43 | 1011.2 |
| 20260504231243 | 77 | 194 | 6.1 | 15.6 | 0.00 | 0.00 | 0.00 | 43 | 1011.2 |
| 20260504231113 | 78 | 200 | 7.0 | 15.6 | 0.00 | 0.00 | 0.00 | 43 | 1011.2 |
| 20260504231021 | 78 | 194 | 6.1 | 15.6 | 0.00 | 0.00 | 0.00 | 43 | 1011.2 |
| 20260504230928 | 78 | 227 | 5.2 | 15.6 | 0.00 | 0.00 | 0.00 | 43 | 1011.2 |
| 20260504230814 | 78 | 142 | 6.1 | 15.6 | 0.00 | 0.00 | 0.00 | 43 | 1011.3 |
| 20260504230721 | 78 | 205 | 8.7 | 15.6 | 0.00 | 0.00 | 0.00 | 42 | 1011.3 |
| 20260504230628 | 78 | 195 | 9.6 | 15.6 | 0.00 | 0.00 | 0.00 | 42 | 1011.3 |
| 20260504230543 | 78 | 207 | 7.8 | 14.8 | 0.00 | 0.00 | 0.00 | 41 | 1011.2 |
| 20260504230315 | 78 | 250 | 7.0 | 13.0 | 0.00 | 0.00 | 0.00 | 42 | 1011.2 |
| 20260504230242 | 78 | 193 | 7.8 | 12.2 | 0.00 | 0.00 | 0.00 | 42 | 1011.2 |
| 20260504230129 | 78 | 265 | 7.0 | 13.0 | 0.00 | 0.00 | 0.00 | 42 | 1011.2 |
| 20260504230017 | 78 | 173 | 7.0 | 10.4 | 0.00 | 0.00 | 0.00 | 42 | 1011.2 |
| 20260504225929 | 78 | 244 | 7.8 | 12.2 | 0.00 | 0.00 | 0.00 | 41 | 1011.2 |
| 20260504225838 | 78 | 217 | 8.7 | 12.2 | 0.00 | 0.00 | 0.00 | 41 | 1011.2 |
| 20260504225723 | 78 | 192 | 7.0 | 10.4 | 0.00 | 0.00 | 0.00 | 41 | 1011.2 |
| 20260504225650 | 78 | 190 | 6.1 | 11.3 | 0.00 | 0.00 | 0.00 | 41 | 1011.3 |
| 20260504225517 | 78 | 197 | 5.2 | 11.3 | 0.00 | 0.00 | 0.00 | 41 | 1011.2 |
| 20260504225424 | 78 | 215 | 4.3 | 13.9 | 0.00 | 0.00 | 0.00 | 41 | 1011.2 |
| 20260504225315 | 78 | 184 | 6.1 | 13.9 | 0.00 | 0.00 | 0.00 | 41 | 1011.2 |
| 20260504225244 | 78 | 235 | 6.1 | 13.9 | 0.00 | 0.00 | 0.00 | 41 | 1011.2 |
| 20260504225149 | 78 | 201 | 6.1 | 13.9 | 0.00 | 0.00 | 0.00 | 41 | 1011.3 |
| 20260504225057 | 78 | 209 | 7.8 | 15.6 | 0.00 | 0.00 | 0.00 | 41 | 1011.3 |
| 20260504224811 | 78 | 198 | 7.8 | 15.6 | 0.00 | 0.00 | 0.00 | 41 | 1011.3 |
| 20260504224722 | 79 | 132 | 7.8 | 15.6 | 0.00 | 0.00 | 0.00 | 42 | 1011.3 |
| 20260504224649 | 79 | 182 | 7.8 | 15.6 | 0.00 | 0.00 | 0.00 | 42 | 1011.3 |
| 20260504224516 | 79 | 209 | 6.1 | 15.6 | 0.00 | 0.00 | 0.00 | 42 | 1011.3 |
| 20260504224422 | 79 | 179 | 6.1 | 15.6 | 0.00 | 0.00 | 0.00 | 42 | 1011.3 |
| 20260504224349 | 79 | 177 | 7.8 | 15.6 | 0.00 | 0.00 | 0.00 | 42 | 1011.3 |
| 20260504224215 | 79 | 167 | 7.8 | 15.6 | 0.00 | 0.00 | 0.00 | 42 | 1011.2 |
| 20260504224123 | 79 | 180 | 7.0 | 11.3 | 0.00 | 0.00 | 0.00 | 42 | 1011.2 |
| 20260504224034 | 79 | 258 | 7.0 | 11.3 | 0.00 | 0.00 | 0.00 | 42 | 1011.3 |
| 20260504223921 | 79 | 188 | 6.1 | 11.3 | 0.00 | 0.00 | 0.00 | 43 | 1011.3 |
| 20260504223848 | 79 | 192 | 5.2 | 10.4 | 0.00 | 0.00 | 0.00 | 42 | 1011.3 |
| 20260504223715 | 79 | 179 | 6.1 | 10.4 | 0.00 | 0.00 | 0.00 | 43 | 1011.3 |
| 20260504223623 | 79 | 186 | 6.1 | 10.4 | 0.00 | 0.00 | 0.00 | 42 | 1011.3 |
| 20260504223558 | 79 | 119 | 5.2 | 13.0 | 0.00 | 0.00 | 0.00 | 42 | 1011.3 |
| 20260504223332 | 78 | 213 | 4.3 | 13.0 | 0.00 | 0.00 | 0.00 | 42 | 1011.5 |
| 20260504223218 | 78 | 205 | 5.2 | 13.0 | 0.00 | 0.00 | 0.00 | 42 | 1011.5 |
| 20260504223126 | 78 | 190 | 6.1 | 13.0 | 0.00 | 0.00 | 0.00 | 42 | 1011.5 |
| 20260504223014 | 78 | 207 | 7.0 | 13.0 | 0.00 | 0.00 | 0.00 | 41 | 1011.5 |
| 20260504222942 | 79 | 175 | 7.0 | 13.0 | 0.00 | 0.00 | 0.00 | 41 | 1011.5 |
| 20260504222833 | 79 | 176 | 8.7 | 20.0 | 0.00 | 0.00 | 0.00 | 41 | 1011.5 |
| 20260504222720 | 79 | 180 | 8.7 | 20.0 | 0.00 | 0.00 | 0.00 | 41 | 1011.5 |
| 20260504222627 | 79 | 194 | 7.0 | 20.0 | 0.00 | 0.00 | 0.00 | 41 | 1011.5 |
| 20260504222515 | 79 | 213 | 7.8 | 20.0 | 0.00 | 0.00 | 0.00 | 41 | 1011.6 |
| 20260504222423 | 79 | 303 | 7.0 | 20.0 | 0.00 | 0.00 | 0.00 | 42 | 1011.6 |
| 20260504222311 | 79 | 182 | 7.0 | 20.0 | 0.00 | 0.00 | 0.00 | 41 | 1011.6 |
| 20260504222222 | 79 | 217 | 7.8 | 20.0 | 0.00 | 0.00 | 0.00 | 40 | 1011.6 |
| 20260504222131 | 79 | 200 | 8.7 | 20.0 | 0.00 | 0.00 | 0.00 | 40 | 1011.6 |
| 20260504222102 | 79 | 224 | 10.4 | 20.0 | 0.00 | 0.00 | 0.00 | 40 | 1011.6 |
| 20260504221814 | 79 | 215 | 10.4 | 16.5 | 0.00 | 0.00 | 0.00 | 39 | 1011.6 |
| 20260504221725 | 79 | 196 | 9.6 | 16.5 | 0.00 | 0.00 | 0.00 | 39 | 1011.6 |
| 20260504221612 | 79 | 196 | 8.7 | 13.9 | 0.00 | 0.00 | 0.00 | 39 | 1011.6 |
| 20260504221519 | 79 | 182 | 8.7 | 13.9 | 0.00 | 0.00 | 0.00 | 38 | 1011.6 |
| 20260504221428 | 79 | 203 | 9.6 | 13.9 | 0.00 | 0.00 | 0.00 | 38 | 1011.6 |
| 20260504221315 | 79 | 200 | 7.8 | 14.8 | 0.00 | 0.00 | 0.00 | 39 | 1011.5 |
| 20260504221222 | 79 | 190 | 7.8 | 14.8 | 0.00 | 0.00 | 0.00 | 38 | 1011.5 |
| 20260504221113 | 79 | 216 | 8.7 | 14.8 | 0.00 | 0.00 | 0.00 | 38 | 1011.6 |
| 20260504221021 | 79 | 177 | 8.7 | 14.8 | 0.00 | 0.00 | 0.00 | 38 | 1011.6 |
| 20260504220928 | 79 | 169 | 8.7 | 16.5 | 0.00 | 0.00 | 0.00 | 39 | 1011.6 |
| 20260504220814 | 79 | 178 | 7.8 | 16.5 | 0.00 | 0.00 | 0.00 | 39 | 1011.7 |
| 20260504220722 | 79 | 174 | 8.7 | 16.5 | 0.00 | 0.00 | 0.00 | 39 | 1011.7 |
| 20260504220613 | 79 | 187 | 8.7 | 16.5 | 0.00 | 0.00 | 0.00 | 40 | 1011.7 |
| 20260504220544 | 79 | 207 | 7.8 | 16.5 | 0.00 | 0.00 | 0.00 | 40 | 1011.7 |
| 20260504220317 | 79 | 185 | 8.7 | 16.5 | 0.00 | 0.00 | 0.00 | 40 | 1011.7 |
| 20260504220245 | 79 | 171 | 9.6 | 16.5 | 0.00 | 0.00 | 0.00 | 39 | 1011.7 |
| 20260504220131 | 79 | 198 | 9.6 | 16.5 | 0.00 | 0.00 | 0.00 | 41 | 1011.6 |
| 20260504220021 | 79 | 257 | 10.4 | 16.5 | 0.00 | 0.00 | 0.00 | 41 | 1011.6 |
| 20260504215947 | 79 | 202 | 11.3 | 16.5 | 0.00 | 0.00 | 0.00 | 41 | 1011.6 |
| 20260504215813 | 79 | 189 | 9.6 | 16.5 | 0.00 | 0.00 | 0.00 | 42 | 1011.6 |
| 20260504215720 | 79 | 191 | 9.6 | 16.5 | 0.00 | 0.00 | 0.00 | 42 | 1011.6 |
| 20260504215627 | 79 | 175 | 7.0 | 16.5 | 0.00 | 0.00 | 0.00 | 42 | 1011.6 |
| 20260504215515 | 79 | 143 | 6.1 | 16.5 | 0.00 | 0.00 | 0.00 | 43 | 1011.6 |
| 20260504215427 | 79 | 187 | 7.8 | 16.5 | 0.00 | 0.00 | 0.00 | 42 | 1011.6 |
| 20260504215314 | 79 | 207 | 9.6 | 16.5 | 0.00 | 0.00 | 0.00 | 42 | 1011.6 |
| 20260504215220 | 79 | 198 | 9.6 | 16.5 | 0.00 | 0.00 | 0.00 | 43 | 1011.6 |
| 20260504215127 | 79 | 188 | 9.6 | 15.6 | 0.00 | 0.00 | 0.00 | 42 | 1011.7 |
| 20260504215057 | 79 | 180 | 10.4 | 15.6 | 0.00 | 0.00 | 0.00 | 42 | 1011.6 |
| 20260504214834 | 79 | 166 | 7.8 | 15.6 | 0.00 | 0.00 | 0.00 | 43 | 1011.7 |
| 20260504214719 | 79 | 250 | 5.2 | 12.2 | 0.00 | 0.00 | 0.00 | 43 | 1011.6 |
| 20260504214647 | 79 | 180 | 5.2 | 12.2 | 0.00 | 0.00 | 0.00 | 43 | 1011.6 |
| 20260504214514 | 79 | 137 | 6.1 | 13.9 | 0.00 | 0.00 | 0.00 | 42 | 1011.6 |
| 20260504214422 | 79 | 220 | 6.1 | 13.9 | 0.00 | 0.00 | 0.00 | 42 | 1011.6 |
| 20260504214310 | 78 | 209 | 6.1 | 13.9 | 0.00 | 0.00 | 0.00 | 42 | 1011.7 |
| 20260504214242 | 79 | 236 | 7.0 | 13.9 | 0.00 | 0.00 | 0.00 | 42 | 1011.7 |
| 20260504214128 | 79 | 264 | 7.8 | 13.9 | 0.00 | 0.00 | 0.00 | 43 | 1011.7 |
| 20260504214016 | 79 | 201 | 6.1 | 13.9 | 0.00 | 0.00 | 0.00 | 43 | 1011.7 |
| 20260504213923 | 78 | 219 | 7.0 | 13.9 | 0.00 | 0.00 | 0.00 | 43 | 1011.7 |
| 20260504213811 | 78 | 171 | 7.8 | 13.9 | 0.00 | 0.00 | 0.00 | 42 | 1011.6 |
| 20260504213718 | 78 | 203 | 7.0 | 13.9 | 0.00 | 0.00 | 0.00 | 41 | 1011.7 |
| 20260504213629 | 78 | 244 | 6.1 | 14.8 | 0.00 | 0.00 | 0.00 | 41 | 1011.7 |
| 20260504213559 | 78 | 227 | 7.0 | 14.8 | 0.00 | 0.00 | 0.00 | 42 | 1011.7 |
| 20260504213313 | 78 | 177 | 8.7 | 14.8 | 0.00 | 0.00 | 0.00 | 41 | 1011.6 |
| 20260504213221 | 78 | 182 | 8.7 | 14.8 | 0.00 | 0.00 | 0.00 | 42 | 1011.6 |
| 20260504213112 | 79 | 177 | 7.8 | 14.8 | 0.00 | 0.00 | 0.00 | 42 | 1011.6 |
| 20260504213019 | 79 | 158 | 7.8 | 14.8 | 0.00 | 0.00 | 0.00 | 43 | 1011.6 |
| 20260504212947 | 79 | 207 | 8.7 | 14.8 | 0.00 | 0.00 | 0.00 | 43 | 1011.6 |
| 20260504212833 | 79 | 197 | 8.7 | 14.8 | 0.00 | 0.00 | 0.00 | 43 | 1011.7 |
| 20260504212721 | 79 | 194 | 10.4 | 14.8 | 0.00 | 0.00 | 0.00 | 43 | 1011.7 |
| 20260504212609 | 79 | 174 | 11.3 | 14.8 | 0.00 | 0.00 | 0.00 | 44 | 1011.7 |
| 20260504212517 | 79 | 202 | 9.6 | 13.9 | 0.00 | 0.00 | 0.00 | 44 | 1011.7 |
| 20260504212449 | 79 | 183 | 8.7 | 13.9 | 0.00 | 0.00 | 0.00 | 44 | 1011.7 |
| 20260504212314 | 79 | 169 | 7.0 | 13.9 | 0.00 | 0.00 | 0.00 | 43 | 1011.5 |
| 20260504212242 | 79 | 184 | 7.0 | 13.9 | 0.00 | 0.00 | 0.00 | 43 | 1011.5 |
| 20260504212128 | 79 | 175 | 7.8 | 13.9 | 0.00 | 0.00 | 0.00 | 44 | 1011.6 |
| 20260504212058 | 79 | 189 | 7.8 | 13.9 | 0.00 | 0.00 | 0.00 | 44 | 1011.5 |
| 20260504211835 | 80 | 202 | 7.0 | 13.0 | 0.00 | 0.00 | 0.00 | 43 | 1011.6 |
| 20260504211723 | 80 | 193 | 6.1 | 15.6 | 0.00 | 0.00 | 0.00 | 43 | 1011.6 |
| 20260504211609 | 80 | 248 | 4.3 | 15.6 | 0.00 | 0.00 | 0.00 | 44 | 1011.5 |
| 20260504211516 | 80 | 238 | 5.2 | 15.6 | 0.00 | 0.00 | 0.00 | 43 | 1011.6 |
| 20260504211423 | 80 | 192 | 5.2 | 17.4 | 0.00 | 0.00 | 0.00 | 43 | 1011.6 |
| 20260504211310 | 80 | 286 | 5.2 | 17.4 | 0.00 | 0.00 | 0.00 | 43 | 1011.7 |
| 20260504211222 | 79 | 191 | 5.2 | 17.4 | 0.00 | 0.00 | 0.00 | 41 | 1011.7 |
| 20260504211110 | 79 | 206 | 6.1 | 17.4 | 0.00 | 0.00 | 0.00 | 41 | 1011.7 |
| 20260504211017 | 79 | 175 | 8.7 | 17.4 | 0.00 | 0.00 | 0.00 | 41 | 1011.7 |
| 20260504210924 | 79 | 183 | 8.7 | 17.4 | 0.00 | 0.00 | 0.00 | 39 | 1011.7 |
| 20260504210812 | 79 | 226 | 7.8 | 17.4 | 0.00 | 0.00 | 0.00 | 39 | 1011.7 |
| 20260504210740 | 79 | 241 | 8.7 | 17.4 | 0.00 | 0.00 | 0.00 | 39 | 1011.7 |
| 20260504210630 | 79 | 228 | 9.6 | 17.4 | 0.00 | 0.00 | 0.00 | 40 | 1011.7 |
| 20260504210600 | 79 | 211 | 8.7 | 14.8 | 0.00 | 0.00 | 0.00 | 40 | 1011.7 |
| 20260504210313 | 79 | 183 | 7.0 | 18.2 | 0.00 | 0.00 | 0.00 | 40 | 1011.8 |
| 20260504210221 | 79 | 197 | 7.0 | 18.2 | 0.00 | 0.00 | 0.00 | 42 | 1011.8 |
| 20260504210113 | 79 | 194 | 7.8 | 18.2 | 0.00 | 0.00 | 0.00 | 41 | 1011.7 |
| 20260504210040 | 79 | 193 | 8.7 | 18.2 | 0.00 | 0.00 | 0.00 | 42 | 1011.7 |
| 20260504205928 | 79 | 126 | 7.8 | 18.2 | 0.00 | 0.00 | 0.00 | 41 | 1011.7 |
| 20260504205835 | 79 | 194 | 7.8 | 18.2 | 0.00 | 0.00 | 0.00 | 43 | 1011.7 |
| 20260504205722 | 79 | 212 | 10.4 | 18.2 | 0.00 | 0.00 | 0.00 | 43 | 1011.7 |
| 20260504205609 | 79 | 163 | 12.2 | 18.2 | 0.00 | 0.00 | 0.00 | 44 | 1011.8 |
| 20260504205515 | 79 | 167 | 10.4 | 16.5 | 0.00 | 0.00 | 0.00 | 44 | 1011.8 |
| 20260504205427 | 79 | 180 | 8.7 | 19.1 | 0.00 | 0.00 | 0.00 | 46 | 1011.8 |
| 20260504205314 | 79 | 157 | 5.2 | 13.0 | 0.00 | 0.00 | 0.00 | 48 | 1011.8 |
| 20260504205220 | 79 | 178 | 6.1 | 13.0 | 0.00 | 0.00 | 0.00 | 46 | 1011.8 |
| 20260504205147 | 79 | 194 | 6.1 | 14.8 | 0.00 | 0.00 | 0.00 | 46 | 1011.8 |
| 20260504205056 | 79 | 183 | 6.1 | 15.6 | 0.00 | 0.00 | 0.00 | 47 | 1011.8 |
| 20260504204814 | 79 | 229 | 7.8 | 15.6 | 0.00 | 0.00 | 0.00 | 46 | 1011.9 |
| 20260504204722 | 79 | 167 | 8.7 | 15.6 | 0.00 | 0.00 | 0.00 | 45 | 1011.9 |
| 20260504204609 | 79 | 183 | 7.8 | 15.6 | 0.00 | 0.00 | 0.00 | 44 | 1012.0 |
| 20260504204538 | 79 | 175 | 8.7 | 15.6 | 0.00 | 0.00 | 0.00 | 44 | 1011.9 |
| 20260504204424 | 79 | 189 | 9.6 | 15.6 | 0.00 | 0.00 | 0.00 | 44 | 1011.9 |
| 20260504204311 | 79 | 167 | 11.3 | 16.5 | 0.00 | 0.00 | 0.00 | 44 | 1011.9 |
| 20260504204222 | 79 | 212 | 10.4 | 14.8 | 0.00 | 0.00 | 0.00 | 44 | 1011.9 |
| 20260504204110 | 79 | 198 | 7.8 | 13.0 | 0.00 | 0.00 | 0.00 | 45 | 1011.8 |
| 20260504204017 | 79 | 157 | 7.0 | 13.0 | 0.00 | 0.00 | 0.00 | 46 | 1011.8 |
| 20260504203946 | 79 | 142 | 6.1 | 13.0 | 0.00 | 0.00 | 0.00 | 45 | 1011.8 |
| 20260504203811 | 79 | 191 | 6.1 | 13.0 | 0.00 | 0.00 | 0.00 | 47 | 1011.9 |
| 20260504203719 | 79 | 163 | 6.1 | 16.5 | 0.00 | 0.00 | 0.00 | 45 | 1011.9 |
| 20260504203631 | 79 | 140 | 7.0 | 16.5 | 0.00 | 0.00 | 0.00 | 47 | 1011.9 |
| 20260504203602 | 79 | 153 | 7.0 | 16.5 | 0.00 | 0.00 | 0.00 | 47 | 1011.9 |
| 20260504203316 | 79 | 178 | 8.7 | 16.5 | 0.00 | 0.00 | 0.00 | 46 | 1012.0 |
| 20260504203223 | 79 | 184 | 8.7 | 16.5 | 0.00 | 0.00 | 0.00 | 46 | 1012.0 |
| 20260504203115 | 79 | 178 | 7.8 | 16.5 | 0.00 | 0.00 | 0.00 | 45 | 1012.0 |
| 20260504203023 | 78 | 178 | 7.8 | 16.5 | 0.00 | 0.00 | 0.00 | 45 | 1012.0 |
| 20260504202911 | 78 | 190 | 9.6 | 13.9 | 0.00 | 0.00 | 0.00 | 44 | 1012.0 |
| 20260504202817 | 78 | 178 | 8.7 | 13.9 | 0.00 | 0.00 | 0.00 | 44 | 1012.0 |
| 20260504202725 | 78 | 206 | 7.8 | 13.9 | 0.00 | 0.00 | 0.00 | 44 | 1012.0 |
| 20260504202616 | 78 | 200 | 7.8 | 11.3 | 0.00 | 0.00 | 0.00 | 45 | 1012.0 |
| 20260504202524 | 78 | 200 | 7.0 | 10.4 | 0.00 | 0.00 | 0.00 | 46 | 1012.0 |
| 20260504202411 | 78 | 185 | 7.8 | 10.4 | 0.00 | 0.00 | 0.00 | 45 | 1012.1 |
| 20260504202319 | 78 | 171 | 7.0 | 10.4 | 0.00 | 0.00 | 0.00 | 44 | 1012.1 |
| 20260504202247 | 78 | 158 | 6.1 | 11.3 | 0.00 | 0.00 | 0.00 | 45 | 1012.1 |
| 20260504202114 | 78 | 192 | 6.1 | 12.2 | 0.00 | 0.00 | 0.00 | 45 | 1012.0 |
| 20260504202049 | 78 | 265 | 6.1 | 12.2 | 0.00 | 0.00 | 0.00 | 45 | 1012.0 |
| 20260504201822 | 78 | 195 | 6.1 | 19.1 | 0.00 | 0.00 | 0.00 | 45 | 1012.1 |
| 20260504201709 | 78 | 109 | 6.1 | 19.1 | 0.00 | 0.00 | 0.00 | 45 | 1012.1 |
| 20260504201617 | 78 | 150 | 6.1 | 19.1 | 0.00 | 0.00 | 0.00 | 45 | 1012.1 |
| 20260504201525 | 78 | 142 | 7.0 | 19.1 | 0.00 | 0.00 | 0.00 | 46 | 1012.1 |
| 20260504201415 | 78 | 206 | 7.0 | 19.1 | 0.00 | 0.00 | 0.00 | 46 | 1012.1 |
| 20260504201322 | 78 | 178 | 7.0 | 19.1 | 0.00 | 0.00 | 0.00 | 46 | 1012.1 |
| 20260504201248 | 78 | 194 | 7.0 | 19.1 | 0.00 | 0.00 | 0.00 | 45 | 1012.2 |
| 20260504201115 | 78 | 188 | 9.6 | 19.1 | 0.00 | 0.00 | 0.00 | 45 | 1012.2 |
| 20260504201042 | 78 | 194 | 9.6 | 19.1 | 0.00 | 0.00 | 0.00 | 45 | 1012.2 |
| 20260504200929 | 78 | 186 | 8.7 | 16.5 | 0.00 | 0.00 | 0.00 | 45 | 1012.2 |
| 20260504200821 | 78 | 103 | 7.0 | 11.3 | 0.00 | 0.00 | 0.00 | 45 | 1012.2 |
| 20260504200748 | 78 | 193 | 6.1 | 10.4 | 0.00 | 0.00 | 0.00 | 47 | 1012.2 |
| 20260504200614 | 78 | 222 | 5.2 | 13.9 | 0.00 | 0.00 | 0.00 | 48 | 1012.1 |
| 20260504200545 | 78 | 212 | 5.2 | 13.9 | 0.00 | 0.00 | 0.00 | 47 | 1012.1 |
| 20260504200318 | 78 | 200 | 5.2 | 13.9 | 0.00 | 0.00 | 0.00 | 48 | 1012.2 |
| 20260504200229 | 78 | 200 | 6.1 | 13.9 | 0.00 | 0.00 | 0.00 | 47 | 1012.2 |
| 20260504200116 | 78 | 185 | 7.8 | 14.8 | 0.00 | 0.00 | 0.00 | 46 | 1012.3 |
| 20260504200023 | 78 | 223 | 7.0 | 14.8 | 0.00 | 0.00 | 0.00 | 46 | 1012.3 |
| 20260504195912 | 78 | 181 | 7.0 | 14.8 | 0.00 | 0.00 | 0.00 | 46 | 1012.3 |
| 20260504195839 | 78 | 187 | 7.8 | 14.8 | 0.00 | 0.00 | 0.00 | 46 | 1012.3 |
| 20260504195724 | 78 | 189 | 8.7 | 14.8 | 0.00 | 0.00 | 0.00 | 46 | 1012.3 |
| 20260504195616 | 79 | 158 | 7.8 | 14.8 | 0.00 | 0.00 | 0.00 | 45 | 1012.3 |
| 20260504195524 | 79 | 187 | 7.8 | 14.8 | 0.00 | 0.00 | 0.00 | 45 | 1012.3 |
| 20260504195410 | 79 | 174 | 7.0 | 14.8 | 0.00 | 0.00 | 0.00 | 45 | 1012.2 |
| 20260504195317 | 79 | 200 | 7.8 | 14.8 | 0.00 | 0.00 | 0.00 | 45 | 1012.4 |
| 20260504195225 | 79 | 165 | 8.7 | 15.6 | 0.00 | 0.00 | 0.00 | 45 | 1012.4 |
| 20260504195118 | 79 | 168 | 8.7 | 14.8 | 0.00 | 0.00 | 0.00 | 45 | 1012.4 |
| 20260504195047 | 78 | 157 | 7.8 | 14.8 | 0.00 | 0.00 | 0.00 | 45 | 1012.4 |
| 20260504194821 | 78 | 169 | 6.1 | 12.2 | 0.00 | 0.00 | 0.00 | 46 | 1012.4 |
| 20260504194729 | 79 | 221 | 6.1 | 12.2 | 0.00 | 0.00 | 0.00 | 47 | 1012.4 |
| 20260504194619 | 79 | 146 | 7.0 | 12.2 | 0.00 | 0.00 | 0.00 | 46 | 1012.5 |
| 20260504194527 | 79 | 124 | 5.2 | 12.2 | 0.00 | 0.00 | 0.00 | 46 | 1012.5 |
| 20260504194416 | 79 | 154 | 5.2 | 12.2 | 0.00 | 0.00 | 0.00 | 47 | 1012.5 |
| 20260504194322 | 78 | 132 | 7.0 | 12.2 | 0.00 | 0.00 | 0.00 | 47 | 1012.5 |
| 20260504194210 | 78 | 197 | 6.1 | 12.2 | 0.00 | 0.00 | 0.00 | 47 | 1012.5 |
| 20260504194119 | 78 | 153 | 5.2 | 13.0 | 0.00 | 0.00 | 0.00 | 48 | 1012.5 |
| 20260504194010 | 78 | 172 | 5.2 | 13.0 | 0.00 | 0.00 | 0.00 | 49 | 1012.6 |
| 20260504193917 | 78 | 203 | 6.1 | 13.9 | 0.00 | 0.00 | 0.00 | 49 | 1012.6 |
| 20260504193824 | 78 | 193 | 7.0 | 13.9 | 0.00 | 0.00 | 0.00 | 48 | 1012.6 |
| 20260504193712 | 78 | 180 | 6.1 | 13.9 | 0.00 | 0.00 | 0.00 | 48 | 1012.5 |
| 20260504193620 | 78 | 207 | 4.3 | 14.8 | 0.00 | 0.00 | 0.00 | 48 | 1012.5 |
| 20260504193556 | 78 | 178 | 5.2 | 14.8 | 0.00 | 0.00 | 0.00 | 47 | 1012.6 |
| 20260504193309 | 79 | 325 | 7.0 | 14.8 | 0.00 | 0.00 | 0.00 | 47 | 1012.7 |
| 20260504193218 | 79 | 174 | 8.7 | 14.8 | 0.00 | 0.00 | 0.00 | 49 | 1012.6 |
| 20260504193126 | 79 | 143 | 7.8 | 14.8 | 0.00 | 0.00 | 0.00 | 47 | 1012.6 |
| 20260504193017 | 79 | 161 | 7.8 | 14.8 | 0.00 | 0.00 | 0.00 | 49 | 1012.7 |
| 20260504192924 | 79 | 206 | 7.8 | 14.8 | 0.00 | 0.00 | 0.00 | 48 | 1012.7 |
| 20260504192812 | 79 | 203 | 8.7 | 14.8 | 0.00 | 0.00 | 0.00 | 47 | 1012.7 |
| 20260504192720 | 79 | 176 | 7.0 | 13.0 | 0.00 | 0.00 | 0.00 | 48 | 1012.7 |
| 20260504192626 | 79 | 175 | 5.2 | 10.4 | 0.00 | 0.00 | 0.00 | 51 | 1012.7 |
| 20260504192513 | 78 | 200 | 3.5 | 9.6 | 0.00 | 0.00 | 0.00 | 50 | 1012.7 |
| 20260504192425 | 78 | 174 | 3.5 | 9.6 | 0.00 | 0.00 | 0.00 | 49 | 1012.7 |
| 20260504192312 | 78 | 120 | 3.5 | 9.6 | 0.00 | 0.00 | 0.00 | 49 | 1012.8 |
| 20260504192221 | 78 | 215 | 4.3 | 9.6 | 0.00 | 0.00 | 0.00 | 49 | 1012.8 |
| 20260504192149 | 78 | 190 | 5.2 | 9.6 | 0.00 | 0.00 | 0.00 | 49 | 1012.8 |
| 20260504192058 | 78 | 178 | 7.0 | 10.4 | 0.00 | 0.00 | 0.00 | 49 | 1012.7 |
| 20260504191817 | 78 | 202 | 7.0 | 10.4 | 0.00 | 0.00 | 0.00 | 48 | 1012.8 |
| 20260504191744 | 78 | 220 | 5.2 | 10.4 | 0.00 | 0.00 | 0.00 | 49 | 1012.8 |
| 20260504191610 | 78 | 203 | 5.2 | 10.4 | 0.00 | 0.00 | 0.00 | 50 | 1012.9 |
| 20260504191518 | 78 | 177 | 6.1 | 10.4 | 0.00 | 0.00 | 0.00 | 49 | 1012.9 |
| 20260504191424 | 78 | 167 | 6.1 | 10.4 | 0.00 | 0.00 | 0.00 | 49 | 1012.9 |
| 20260504191316 | 78 | 199 | 7.0 | 10.4 | 0.00 | 0.00 | 0.00 | 47 | 1012.9 |
| 20260504191243 | 78 | 196 | 7.8 | 10.4 | 0.00 | 0.00 | 0.00 | 47 | 1012.9 |
| 20260504191111 | 78 | 223 | 7.8 | 10.4 | 0.00 | 0.00 | 0.00 | 48 | 1013.0 |
| 20260504191017 | 78 | 192 | 7.0 | 11.3 | 0.00 | 0.00 | 0.00 | 50 | 1013.0 |
| 20260504190925 | 78 | 198 | 6.1 | 10.4 | 0.00 | 0.00 | 0.00 | 50 | 1013.0 |
| 20260504190813 | 78 | 200 | 6.1 | 10.4 | 0.00 | 0.00 | 0.00 | 48 | 1013.1 |
| 20260504190725 | 78 | 232 | 5.2 | 10.4 | 0.00 | 0.00 | 0.00 | 51 | 1013.1 |
| 20260504190652 | 78 | 192 | 4.3 | 10.4 | 0.00 | 0.00 | 0.00 | 49 | 1013.1 |
| 20260504190620 | 78 | 179 | 4.3 | 10.4 | 0.00 | 0.00 | 0.00 | 49 | 1013.1 |
| 20260504190311 | 78 | 170 | 5.2 | 10.4 | 0.00 | 0.00 | 0.00 | 49 | 1013.1 |
| 20260504190239 | 78 | 221 | 6.1 | 10.4 | 0.00 | 0.00 | 0.00 | 49 | 1013.1 |
| 20260504190125 | 78 | 205 | 5.2 | 10.4 | 0.00 | 0.00 | 0.00 | 49 | 1013.1 |
| 20260504190037 | 78 | 194 | 3.5 | 12.2 | 0.00 | 0.00 | 0.00 | 48 | 1013.1 |
| 20260504185923 | 78 | 190 | 4.3 | 12.2 | 0.00 | 0.00 | 0.00 | 47 | 1013.1 |
| 20260504185810 | 78 | 160 | 5.2 | 12.2 | 0.00 | 0.00 | 0.00 | 47 | 1013.2 |
| 20260504185718 | 78 | 190 | 5.2 | 11.3 | 0.00 | 0.00 | 0.00 | 48 | 1013.2 |
| 20260504185627 | 78 | 192 | 5.2 | 11.3 | 0.00 | 0.00 | 0.00 | 48 | 1013.2 |
| 20260504185518 | 78 | 179 | 7.0 | 11.3 | 0.00 | 0.00 | 0.00 | 48 | 1013.2 |
| 20260504185425 | 78 | 242 | 7.8 | 11.3 | 0.00 | 0.00 | 0.00 | 47 | 1013.2 |
| 20260504185332 | 78 | 290 | 7.8 | 11.3 | 0.00 | 0.00 | 0.00 | 48 | 1013.2 |
| 20260504185239 | 78 | 211 | 7.0 | 11.3 | 0.00 | 0.00 | 0.00 | 47 | 1013.1 |
| 20260504185125 | 78 | 258 | 7.0 | 11.3 | 0.00 | 0.00 | 0.00 | 48 | 1013.1 |
| 20260504185055 | 78 | 220 | 7.0 | 11.3 | 0.00 | 0.00 | 0.00 | 48 | 1013.2 |
| 20260504184813 | 78 | 185 | 7.8 | 11.3 | 0.00 | 0.00 | 0.00 | 47 | 1013.3 |
| 20260504184741 | 78 | 209 | 5.2 | 12.2 | 0.00 | 0.00 | 0.00 | 47 | 1013.3 |
| 20260504184648 | 78 | 181 | 4.3 | 7.8 | 0.00 | 0.00 | 0.00 | 47 | 1013.2 |
| 20260504184514 | 78 | 191 | 5.2 | 10.4 | 0.00 | 0.00 | 0.00 | 47 | 1013.4 |
| 20260504184421 | 78 | 210 | 5.2 | 10.4 | 0.00 | 0.00 | 0.00 | 47 | 1013.4 |
| 20260504184328 | 79 | 177 | 5.2 | 13.0 | 0.00 | 0.00 | 0.00 | 47 | 1013.4 |
| 20260504184219 | 79 | 229 | 5.2 | 13.0 | 0.00 | 0.00 | 0.00 | 47 | 1013.5 |
| 20260504184127 | 79 | 150 | 4.3 | 13.0 | 0.00 | 0.00 | 0.00 | 47 | 1013.5 |
| 20260504184035 | 79 | 208 | 3.5 | 13.0 | 0.00 | 0.00 | 0.00 | 50 | 1013.5 |
| 20260504183920 | 79 | 195 | 5.2 | 13.0 | 0.00 | 0.00 | 0.00 | 49 | 1013.5 |
| 20260504183829 | 78 | 229 | 5.2 | 13.0 | 0.00 | 0.00 | 0.00 | 49 | 1013.4 |
| 20260504183715 | 78 | 270 | 6.1 | 13.0 | 0.00 | 0.00 | 0.00 | 49 | 1013.4 |
| 20260504183627 | 78 | 214 | 5.2 | 13.0 | 0.00 | 0.00 | 0.00 | 48 | 1013.4 |
| 20260504183557 | 78 | 219 | 4.3 | 9.6 | 0.00 | 0.00 | 0.00 | 48 | 1013.5 |
| 20260504183331 | 78 | 232 | 4.3 | 8.7 | 0.00 | 0.00 | 0.00 | 48 | 1013.4 |
| 20260504183217 | 78 | 195 | 6.1 | 8.7 | 0.00 | 0.00 | 0.00 | 46 | 1013.5 |
| 20260504183124 | 78 | 210 | 6.1 | 11.3 | 0.00 | 0.00 | 0.00 | 46 | 1013.5 |
| 20260504183016 | 78 | 207 | 6.1 | 11.3 | 0.00 | 0.00 | 0.00 | 47 | 1013.5 |
| 20260504182923 | 78 | 261 | 5.2 | 11.3 | 0.00 | 0.00 | 0.00 | 49 | 1013.5 |
| 20260504182810 | 78 | 292 | 4.3 | 11.3 | 0.00 | 0.00 | 0.00 | 48 | 1013.6 |
| 20260504182717 | 78 | 186 | 3.5 | 13.0 | 0.00 | 0.00 | 0.00 | 48 | 1013.6 |
| 20260504182625 | 78 | 215 | 3.5 | 13.0 | 0.00 | 0.00 | 0.00 | 49 | 1013.6 |
| 20260504182517 | 78 | 200 | 4.3 | 13.9 | 0.00 | 0.00 | 0.00 | 47 | 1013.5 |
| 20260504182424 | 78 | 248 | 7.0 | 13.9 | 0.00 | 0.00 | 0.00 | 48 | 1013.5 |
| 20260504182311 | 78 | 252 | 7.0 | 13.9 | 0.00 | 0.00 | 0.00 | 49 | 1013.5 |
| 20260504182238 | 78 | 254 | 6.1 | 13.9 | 0.00 | 0.00 | 0.00 | 51 | 1013.5 |
| 20260504182125 | 78 | 159 | 7.0 | 13.9 | 0.00 | 0.00 | 0.00 | 49 | 1013.5 |
| 20260504182059 | 78 | 164 | 7.8 | 13.9 | 0.00 | 0.00 | 0.00 | 49 | 1013.5 |
| 20260504181833 | 78 | 186 | 9.6 | 13.9 | 0.00 | 0.00 | 0.00 | 48 | 1013.8 |
| 20260504181718 | 78 | 189 | 9.6 | 13.9 | 0.00 | 0.00 | 0.00 | 48 | 1013.8 |
| 20260504181627 | 78 | 207 | 9.6 | 15.6 | 0.00 | 0.00 | 0.00 | 49 | 1013.8 |
| 20260504181513 | 78 | 234 | 9.6 | 17.4 | 0.00 | 0.00 | 0.00 | 49 | 1013.8 |
| 20260504181422 | 78 | 200 | 7.0 | 13.0 | 0.00 | 0.00 | 0.00 | 49 | 1013.8 |
| 20260504181313 | 78 | 182 | 7.8 | 13.0 | 0.00 | 0.00 | 0.00 | 49 | 1013.9 |
| 20260504181220 | 78 | 257 | 7.0 | 13.0 | 0.00 | 0.00 | 0.00 | 49 | 1013.9 |
| 20260504181128 | 78 | 257 | 6.1 | 13.0 | 0.00 | 0.00 | 0.00 | 48 | 1013.8 |
| 20260504181016 | 78 | 281 | 6.1 | 13.0 | 0.00 | 0.00 | 0.00 | 48 | 1013.9 |
| 20260504180922 | 78 | 202 | 6.1 | 13.0 | 0.00 | 0.00 | 0.00 | 49 | 1013.9 |
| 20260504180814 | 78 | 196 | 7.0 | 13.0 | 0.00 | 0.00 | 0.00 | 49 | 1014.0 |
| 20260504180721 | 78 | 245 | 7.8 | 13.0 | 0.00 | 0.00 | 0.00 | 48 | 1014.0 |
| 20260504180629 | 78 | 200 | 7.0 | 10.4 | 0.00 | 0.00 | 0.00 | 49 | 1013.9 |
| 20260504180559 | 78 | 233 | 6.1 | 10.4 | 0.00 | 0.00 | 0.00 | 49 | 1013.9 |
| 20260504180334 | 77 | 244 | 4.3 | 10.4 | 0.00 | 0.00 | 0.00 | 49 | 1013.9 |
| 20260504180223 | 77 | 157 | 4.3 | 10.4 | 0.00 | 0.00 | 0.00 | 50 | 1013.9 |
| 20260504180110 | 77 | 263 | 5.2 | 10.4 | 0.00 | 0.00 | 0.00 | 50 | 1014.0 |
| 20260504180018 | 77 | 227 | 5.2 | 10.4 | 0.00 | 0.00 | 0.00 | 50 | 1014.0 |
| 20260504175925 | 77 | 247 | 6.1 | 13.0 | 0.00 | 0.00 | 0.00 | 48 | 1014.0 |
| 20260504175812 | 77 | 220 | 6.1 | 13.0 | 0.00 | 0.00 | 0.00 | 48 | 1014.0 |
| 20260504175720 | 77 | 178 | 6.1 | 13.0 | 0.00 | 0.00 | 0.00 | 50 | 1014.0 |
| 20260504175612 | 77 | 238 | 6.1 | 13.0 | 0.00 | 0.00 | 0.00 | 51 | 1014.0 |
| 20260504175520 | 77 | 186 | 5.2 | 13.0 | 0.00 | 0.00 | 0.00 | 50 | 1014.0 |
| 20260504175447 | 77 | 162 | 6.1 | 13.0 | 0.00 | 0.00 | 0.00 | 51 | 1014.0 |
| 20260504175313 | 77 | 188 | 7.8 | 13.0 | 0.00 | 0.00 | 0.00 | 49 | 1014.0 |
| 20260504175221 | 77 | 188 | 7.8 | 13.0 | 0.00 | 0.00 | 0.00 | 50 | 1014.0 |
| 20260504175128 | 77 | 209 | 7.8 | 13.9 | 0.00 | 0.00 | 0.00 | 49 | 1014.0 |
| 20260504175102 | 77 | 165 | 7.8 | 13.9 | 0.00 | 0.00 | 0.00 | 49 | 1014.0 |
| 20260504174816 | 77 | 198 | 6.1 | 13.9 | 0.00 | 0.00 | 0.00 | 50 | 1014.1 |
| 20260504174721 | 77 | 277 | 5.2 | 13.9 | 0.00 | 0.00 | 0.00 | 52 | 1014.1 |
| 20260504174629 | 77 | 228 | 3.5 | 13.9 | 0.00 | 0.00 | 0.00 | 52 | 1014.1 |
| 20260504174520 | 77 | 276 | 3.5 | 13.9 | 0.00 | 0.00 | 0.00 | 51 | 1014.1 |
| 20260504174428 | 77 | 246 | 5.2 | 13.9 | 0.00 | 0.00 | 0.00 | 51 | 1014.1 |
| 20260504174316 | 77 | 233 | 5.2 | 13.9 | 0.00 | 0.00 | 0.00 | 50 | 1014.2 |
| 20260504174223 | 77 | 177 | 6.1 | 13.9 | 0.00 | 0.00 | 0.00 | 51 | 1014.2 |
| 20260504174109 | 77 | 217 | 7.0 | 13.9 | 0.00 | 0.00 | 0.00 | 51 | 1014.3 |
| 20260504174016 | 77 | 188 | 6.1 | 13.0 | 0.00 | 0.00 | 0.00 | 52 | 1014.1 |
| 20260504173928 | 77 | 212 | 5.2 | 9.6 | 0.00 | 0.00 | 0.00 | 52 | 1014.1 |
| 20260504173837 | 76 | 196 | 4.3 | 8.7 | 0.00 | 0.00 | 0.00 | 52 | 1014.2 |
| 20260504173722 | 76 | 218 | 3.5 | 13.0 | 0.00 | 0.00 | 0.00 | 50 | 1014.2 |
| 20260504173649 | 76 | 185 | 4.3 | 13.0 | 0.00 | 0.00 | 0.00 | 51 | 1014.3 |
| 20260504173600 | 76 | 105 | 5.2 | 12.2 | 0.00 | 0.00 | 0.00 | 51 | 1014.3 |
| 20260504173317 | 76 | 200 | 6.1 | 12.2 | 0.00 | 0.00 | 0.00 | 51 | 1014.4 |
| 20260504173224 | 76 | 200 | 7.0 | 12.2 | 0.00 | 0.00 | 0.00 | 52 | 1014.4 |
| 20260504173111 | 76 | 203 | 4.3 | 12.2 | 0.00 | 0.00 | 0.00 | 51 | 1014.5 |
| 20260504173019 | 76 | 190 | 4.3 | 12.2 | 0.00 | 0.00 | 0.00 | 51 | 1014.5 |
| 20260504172927 | 76 | 235 | 6.1 | 12.2 | 0.00 | 0.00 | 0.00 | 51 | 1014.5 |
| 20260504172814 | 76 | 238 | 8.7 | 13.0 | 0.00 | 0.00 | 0.00 | 51 | 1014.5 |
| 20260504172726 | 76 | 198 | 8.7 | 13.0 | 0.00 | 0.00 | 0.00 | 51 | 1014.5 |
| 20260504172614 | 76 | 244 | 7.0 | 11.3 | 0.00 | 0.00 | 0.00 | 52 | 1014.5 |
| 20260504172521 | 76 | 156 | 6.1 | 11.3 | 0.00 | 0.00 | 0.00 | 51 | 1014.5 |
| 20260504172410 | 76 | 232 | 5.2 | 12.2 | 0.00 | 0.00 | 0.00 | 51 | 1014.5 |
| 20260504172318 | 76 | 198 | 6.1 | 12.2 | 0.00 | 0.00 | 0.00 | 51 | 1014.5 |
| 20260504172230 | 76 | 226 | 6.1 | 12.2 | 0.00 | 0.00 | 0.00 | 51 | 1014.5 |
| 20260504172158 | 76 | 185 | 5.2 | 12.2 | 0.00 | 0.00 | 0.00 | 51 | 1014.5 |
| 20260504172107 | 76 | 174 | 4.3 | 12.2 | 0.00 | 0.00 | 0.00 | 51 | 1014.5 |
| 20260504171820 | 76 | 229 | 5.2 | 12.2 | 0.00 | 0.00 | 0.00 | 54 | 1014.5 |
| 20260504171728 | 76 | 184 | 7.0 | 12.2 | 0.00 | 0.00 | 0.00 | 51 | 1014.6 |
| 20260504171619 | 76 | 198 | 6.1 | 12.2 | 0.00 | 0.00 | 0.00 | 51 | 1014.7 |
| 20260504171547 | 76 | 198 | 4.3 | 9.6 | 0.00 | 0.00 | 0.00 | 51 | 1014.7 |
| 20260504171434 | 76 | 248 | 3.5 | 7.0 | 0.00 | 0.00 | 0.00 | 51 | 1014.7 |
| 20260504171321 | 76 | 243 | 2.6 | 7.0 | 0.00 | 0.00 | 0.00 | 53 | 1014.7 |
| 20260504171249 | 76 | 254 | 3.5 | 7.8 | 0.00 | 0.00 | 0.00 | 54 | 1014.6 |
| 20260504171135 | 76 | 270 | 4.3 | 8.7 | 0.00 | 0.00 | 0.00 | 52 | 1014.7 |
| 20260504171022 | 76 | 269 | 3.5 | 8.7 | 0.00 | 0.00 | 0.00 | 52 | 1014.7 |
| 20260504170931 | 76 | 270 | 4.3 | 8.7 | 0.00 | 0.00 | 0.00 | 52 | 1014.8 |
| 20260504170821 | 76 | 231 | 3.5 | 8.7 | 0.00 | 0.00 | 0.00 | 53 | 1014.8 |
| 20260504170728 | 76 | 259 | 4.3 | 8.7 | 0.00 | 0.00 | 0.00 | 51 | 1014.8 |
| 20260504170616 | 76 | 197 | 6.1 | 10.4 | 0.00 | 0.00 | 0.00 | 51 | 1014.9 |
| 20260504170547 | 76 | 197 | 6.1 | 10.4 | 0.00 | 0.00 | 0.00 | 50 | 1014.9 |
| 20260504170325 | 76 | 196 | 6.1 | 10.4 | 0.00 | 0.00 | 0.00 | 51 | 1014.8 |
| 20260504170213 | 76 | 259 | 6.1 | 10.4 | 0.00 | 0.00 | 0.00 | 51 | 1014.8 |
| 20260504170121 | 76 | 273 | 6.1 | 10.4 | 0.00 | 0.00 | 0.00 | 52 | 1014.8 |
| 20260504160315 | 73 | 215 | 6.1 | 12.2 | 0.00 | 0.00 | 0.00 | 53 | 1015.4 |
| 20260504160224 | 73 | 252 | 6.1 | 12.2 | 0.00 | 0.00 | 0.00 | 55 | 1015.4 |
| 20260504160111 | 73 | 209 | 4.3 | 8.7 | 0.00 | 0.00 | 0.00 | 55 | 1015.5 |
| 20260504151122 | 71 | 207 | 7.8 | 13.0 | 0.00 | 0.00 | 0.00 | 54 | 1015.7 |
| 20260504151011 | 70 | 200 | 6.1 | 13.0 | 0.00 | 0.00 | 0.00 | 54 | 1015.6 |
| 20260504150919 | 70 | 187 | 5.2 | 11.3 | 0.00 | 0.00 | 0.00 | 56 | 1015.7 |
| 20260504150826 | 70 | 261 | 4.3 | 7.8 | 0.00 | 0.00 | 0.00 | 55 | 1015.7 |
| 20260504150714 | 70 | 227 | 3.5 | 10.4 | 0.00 | 0.00 | 0.00 | 55 | 1015.7 |
| 20260504150645 | 70 | 254 | 4.3 | 10.4 | 0.00 | 0.00 | 0.00 | 56 | 1015.7 |
| 20260504150615 | 70 | 176 | 5.2 | 10.4 | 0.00 | 0.00 | 0.00 | 56 | 1015.7 |
| 20260504150327 | 70 | 244 | 5.2 | 10.4 | 0.00 | 0.00 | 0.00 | 55 | 1015.7 |
| 20260504150215 | 70 | 180 | 4.3 | 10.4 | 0.00 | 0.00 | 0.00 | 54 | 1015.8 |
| 20260504150123 | 70 | 197 | 5.2 | 10.4 | 0.00 | 0.00 | 0.00 | 55 | 1015.8 |
| 20260504141314 | 65 | 224 | 2.6 | 8.7 | 0.00 | 0.00 | 0.00 | 61 | 1016.1 |
| 20260504141222 | 65 | 205 | 4.3 | 8.7 | 0.00 | 0.00 | 0.00 | 60 | 1016.1 |
| 20260504141129 | 65 | 191 | 5.2 | 8.7 | 0.00 | 0.00 | 0.00 | 60 | 1016.1 |
| 20260504141017 | 65 | 215 | 3.5 | 8.7 | 0.00 | 0.00 | 0.00 | 61 | 1016.2 |
| 20260504140924 | 65 | 144 | 3.5 | 8.7 | 0.00 | 0.00 | 0.00 | 60 | 1016.2 |
| 20260504140815 | 65 | 198 | 5.2 | 8.7 | 0.00 | 0.00 | 0.00 | 59 | 1016.2 |
| 20260504140723 | 65 | 155 | 6.1 | 8.7 | 0.00 | 0.00 | 0.00 | 59 | 1016.2 |
| 20260504140631 | 65 | 188 | 5.2 | 9.6 | 0.00 | 0.00 | 0.00 | 61 | 1016.3 |
| 20260504140602 | 65 | 183 | 5.2 | 8.7 | 0.00 | 0.00 | 0.00 | 59 | 1016.2 |
| 20260504140334 | 65 | 193 | 5.2 | 7.8 | 0.00 | 0.00 | 0.00 | 60 | 1016.3 |
| 20260504140225 | 65 | 220 | 3.5 | 8.7 | 0.00 | 0.00 | 0.00 | 61 | 1016.3 |
| 20260504140112 | 65 | 209 | 3.5 | 8.7 | 0.00 | 0.00 | 0.00 | 61 | 1016.4 |
| 20260504130727 | 61 | 194 | 5.2 | 7.8 | 0.00 | 0.00 | 0.00 | 63 | 1016.5 |
| 20260504130615 | 61 | 190 | 4.3 | 8.7 | 0.00 | 0.00 | 0.00 | 63 | 1016.5 |
| 20260504130550 | 61 | 209 | 4.3 | 8.7 | 0.00 | 0.00 | 0.00 | 63 | 1016.5 |
| 20260504130324 | 60 | 184 | 3.5 | 8.7 | 0.00 | 0.00 | 0.00 | 64 | 1016.5 |
| 20260504130211 | 60 | 198 | 4.3 | 8.7 | 0.00 | 0.00 | 0.00 | 63 | 1016.5 |
| 20260504130117 | 60 | 184 | 3.5 | 8.7 | 0.00 | 0.00 | 0.00 | 64 | 1016.5 |
| 20260504120312 | 55 | 141 | 3.5 | 6.1 | 0.00 | 0.00 | 0.00 | 73 | 1015.9 |
| 20260504120221 | 55 | 130 | 3.5 | 6.1 | 0.00 | 0.00 | 0.00 | 74 | 1015.9 |
| 20260504120112 | 55 | 130 | 3.5 | 6.1 | 0.00 | 0.00 | 0.00 | 74 | 1016.0 |
| 20260504110628 | 49 | 145 | 2.6 | 3.5 | 0.00 | 0.00 | 0.00 | 84 | 1015.6 |
| 20260504110559 | 49 | 146 | 2.6 | 3.5 | 0.00 | 0.00 | 0.00 | 84 | 1015.5 |
| 20260504110333 | 49 | 146 | 2.6 | 2.6 | 0.00 | 0.00 | 0.00 | 84 | 1015.5 |
| 20260504110245 | 49 | 146 | 2.6 | 2.6 | 0.00 | 0.00 | 0.00 | 84 | 1015.5 |
| 20260504110110 | 49 | 146 | 1.7 | 2.6 | 0.00 | 0.00 | 0.00 | 84 | 1015.5 |
| 20260504100543 | 49 | 146 | 0.9 | 2.6 | 0.00 | 0.00 | 0.00 | 85 | 1015.4 |
| 20260504100317 | 49 | 151 | 0.9 | 2.6 | 0.00 | 0.00 | 0.00 | 85 | 1015.4 |
| 20260504100224 | 49 | 151 | 0.9 | 2.6 | 0.00 | 0.00 | 0.00 | 85 | 1015.4 |
| 20260504100113 | 49 | 155 | 0.0 | 2.6 | 0.00 | 0.00 | 0.00 | 85 | 1015.4 |
| 20260504090119 | 50 | 131 | 0.9 | 1.7 | 0.00 | 0.00 | 0.00 | 85 | 1015.2 |
| 20260504081823 | 51 | 131 | 0.0 | 1.7 | 0.00 | 0.00 | 0.00 | 79 | 1015.4 |
| 20260504081711 | 51 | 131 | 0.0 | 1.7 | 0.00 | 0.00 | 0.00 | 79 | 1015.4 |
| 20260504081619 | 51 | 131 | 0.0 | 1.7 | 0.00 | 0.00 | 0.00 | 80 | 1015.4 |
| 20260504081510 | 51 | 131 | 0.0 | 1.7 | 0.00 | 0.00 | 0.00 | 79 | 1015.3 |
| 20260504081418 | 51 | 131 | 0.0 | 1.7 | 0.00 | 0.00 | 0.00 | 79 | 1015.3 |
| 20260504081346 | 51 | 131 | 0.9 | 1.7 | 0.00 | 0.00 | 0.00 | 79 | 1015.3 |
| 20260504081213 | 51 | 131 | 0.9 | 2.6 | 0.00 | 0.00 | 0.00 | 79 | 1015.3 |
| 20260504081119 | 51 | 131 | 0.9 | 2.6 | 0.00 | 0.00 | 0.00 | 79 | 1015.3 |
| 20260504081027 | 51 | 131 | 0.9 | 2.6 | 0.00 | 0.00 | 0.00 | 79 | 1015.3 |
| 20260504080918 | 51 | 131 | 0.0 | 2.6 | 0.00 | 0.00 | 0.00 | 79 | 1015.3 |
| 20260504080826 | 51 | 131 | 0.0 | 2.6 | 0.00 | 0.00 | 0.00 | 79 | 1015.3 |
| 20260504080734 | 51 | 131 | 0.9 | 2.6 | 0.00 | 0.00 | 0.00 | 79 | 1015.4 |
| 20260504080620 | 51 | 131 | 0.9 | 2.6 | 0.00 | 0.00 | 0.00 | 79 | 1015.4 |
| 20260504080549 | 51 | 131 | 0.9 | 2.6 | 0.00 | 0.00 | 0.00 | 79 | 1015.4 |
| 20260504080343 | 51 | 131 | 0.9 | 2.6 | 0.00 | 0.00 | 0.00 | 80 | 1015.3 |
| 20260504080215 | 51 | 131 | 1.7 | 2.6 | 0.00 | 0.00 | 0.00 | 80 | 1015.3 |
| 20260504080122 | 51 | 131 | 1.7 | 2.6 | 0.00 | 0.00 | 0.00 | 80 | 1015.3 |
| 20260504070323 | 51 | 131 | 0.0 | 0.9 | 0.00 | 0.00 | 0.00 | 79 | 1015.7 |
| 20260504070210 | 51 | 131 | 0.0 | 0.9 | 0.00 | 0.00 | 0.00 | 79 | 1015.7 |
| 20260504070118 | 51 | 131 | 0.0 | 1.7 | 0.00 | 0.00 | 0.00 | 79 | 1015.7 |
| 20260504060210 | 53 | 136 | 2.6 | 3.5 | 0.00 | 0.00 | 0.00 | 76 | 1016.1 |
| 20260504060118 | 53 | 132 | 2.6 | 4.3 | 0.00 | 0.00 | 0.00 | 76 | 1016.1 |
| 20260504050724 | 54 | 142 | 0.9 | 1.7 | 0.00 | 0.00 | 0.00 | 74 | 1016.7 |
| 20260504050612 | 54 | 142 | 0.0 | 1.7 | 0.00 | 0.00 | 0.00 | 74 | 1016.7 |
| 20260504050543 | 54 | 142 | 0.0 | 2.6 | 0.00 | 0.00 | 0.00 | 74 | 1016.7 |
| 20260504050335 | 54 | 142 | 0.0 | 2.6 | 0.00 | 0.00 | 0.00 | 74 | 1016.7 |
| 20260504050220 | 54 | 142 | 0.0 | 2.6 | 0.00 | 0.00 | 0.00 | 74 | 1016.6 |
| 20260504050111 | 54 | 142 | 0.0 | 2.6 | 0.00 | 0.00 | 0.00 | 74 | 1016.7 |
| 20260504050018 | 54 | 142 | 0.0 | 2.6 | 0.00 | 0.00 | 0.00 | 74 | 1016.7 |
| 20260504045923 | 54 | 142 | 0.0 | 2.6 | 0.00 | 0.00 | 0.00 | 74 | 1016.7 |
| 20260504045813 | 54 | 142 | 0.9 | 2.6 | 0.00 | 0.00 | 0.00 | 74 | 1016.6 |
| 20260504045720 | 54 | 142 | 0.9 | 2.6 | 0.00 | 0.00 | 0.00 | 74 | 1016.6 |
| 20260504045611 | 54 | 142 | 1.7 | 2.6 | 0.00 | 0.00 | 0.00 | 74 | 1016.6 |
| 20260504045519 | 54 | 142 | 1.7 | 2.6 | 0.00 | 0.00 | 0.00 | 74 | 1016.6 |
| 20260504045426 | 54 | 142 | 1.7 | 2.6 | 0.00 | 0.00 | 0.00 | 74 | 1016.6 |
| 20260504045333 | 54 | 142 | 1.7 | 2.6 | 0.00 | 0.00 | 0.00 | 74 | 1016.6 |
| 20260504045241 | 54 | 142 | 1.7 | 2.6 | 0.00 | 0.00 | 0.00 | 73 | 1016.6 |
| 20260504045128 | 54 | 142 | 1.7 | 2.6 | 0.00 | 0.00 | 0.00 | 72 | 1016.6 |
| 20260504045044 | 54 | 142 | 1.7 | 2.6 | 0.00 | 0.00 | 0.00 | 72 | 1016.6 |
| 20260504044837 | 54 | 142 | 1.7 | 2.6 | 0.00 | 0.00 | 0.00 | 72 | 1016.6 |
| 20260504044742 | 54 | 138 | 1.7 | 2.6 | 0.00 | 0.00 | 0.00 | 73 | 1016.6 |
| 20260504044628 | 54 | 144 | 1.7 | 2.6 | 0.00 | 0.00 | 0.00 | 73 | 1016.6 |
| 20260504044516 | 54 | 144 | 0.0 | 1.7 | 0.00 | 0.00 | 0.00 | 73 | 1016.6 |
| 20260504044444 | 54 | 165 | 0.0 | 0.0 | 0.00 | 0.00 | 0.00 | 73 | 1016.6 |
| 20260504044315 | 54 | 165 | 0.0 | 0.9 | 0.00 | 0.00 | 0.00 | 73 | 1016.6 |
| 20260504044222 | 54 | 165 | 0.0 | 0.9 | 0.00 | 0.00 | 0.00 | 72 | 1016.6 |
| 20260504044111 | 54 | 165 | 0.0 | 0.9 | 0.00 | 0.00 | 0.00 | 72 | 1016.6 |
| 20260504044019 | 54 | 165 | 0.0 | 1.7 | 0.00 | 0.00 | 0.00 | 72 | 1016.6 |
| 20260504043926 | 54 | 165 | 0.0 | 1.7 | 0.00 | 0.00 | 0.00 | 72 | 1016.6 |
| 20260504043834 | 54 | 165 | 0.0 | 1.7 | 0.00 | 0.00 | 0.00 | 72 | 1016.6 |
| 20260504043726 | 54 | 165 | 0.0 | 1.7 | 0.00 | 0.00 | 0.00 | 72 | 1016.6 |
| 20260504043614 | 54 | 165 | 0.0 | 1.7 | 0.00 | 0.00 | 0.00 | 72 | 1016.7 |
| 20260504043546 | 54 | 165 | 0.0 | 1.7 | 0.00 | 0.00 | 0.00 | 72 | 1016.7 |
| 20260504043320 | 54 | 165 | 0.0 | 1.7 | 0.00 | 0.00 | 0.00 | 72 | 1016.6 |
| 20260504043210 | 54 | 165 | 0.0 | 1.7 | 0.00 | 0.00 | 0.00 | 73 | 1016.5 |
| 20260504043118 | 55 | 165 | 0.0 | 0.0 | 0.00 | 0.00 | 0.00 | 73 | 1016.6 |
| 20260504043026 | 55 | 165 | 0.0 | 0.0 | 0.00 | 0.00 | 0.00 | 73 | 1016.6 |
| 20260504042913 | 55 | 165 | 0.0 | 0.0 | 0.00 | 0.00 | 0.00 | 73 | 1016.7 |
| 20260504042821 | 55 | 165 | 0.0 | 0.0 | 0.00 | 0.00 | 0.00 | 73 | 1016.7 |
| 20260504042714 | 55 | 165 | 0.0 | 0.0 | 0.00 | 0.00 | 0.00 | 73 | 1016.7 |
| 20260504042621 | 55 | 165 | 0.0 | 0.0 | 0.00 | 0.00 | 0.00 | 72 | 1016.7 |
| 20260504042510 | 55 | 165 | 0.0 | 0.0 | 0.00 | 0.00 | 0.00 | 72 | 1016.7 |
| 20260504042416 | 55 | 165 | 0.0 | 0.0 | 0.00 | 0.00 | 0.00 | 72 | 1016.7 |
| 20260504042343 | 55 | 165 | 0.0 | 0.0 | 0.00 | 0.00 | 0.00 | 71 | 1016.7 |
| 20260504042211 | 55 | 165 | 0.0 | 0.0 | 0.00 | 0.00 | 0.00 | 71 | 1016.7 |
| 20260504042121 | 55 | 165 | 0.0 | 0.0 | 0.00 | 0.00 | 0.00 | 71 | 1016.7 |
| 20260504042051 | 55 | 165 | 0.0 | 0.0 | 0.00 | 0.00 | 0.00 | 70 | 1016.7 |
| 20260504041825 | 55 | 165 | 0.0 | 0.0 | 0.00 | 0.00 | 0.00 | 70 | 1016.6 |
| 20260504041713 | 55 | 165 | 0.0 | 0.9 | 0.00 | 0.00 | 0.00 | 70 | 1016.6 |
| 20260504041620 | 55 | 165 | 0.0 | 1.7 | 0.00 | 0.00 | 0.00 | 70 | 1016.6 |
| 20260504041511 | 55 | 165 | 0.0 | 1.7 | 0.00 | 0.00 | 0.00 | 70 | 1016.6 |
| 20260504041417 | 55 | 165 | 0.0 | 1.7 | 0.00 | 0.00 | 0.00 | 70 | 1016.5 |
| 20260504041324 | 55 | 165 | 0.0 | 1.7 | 0.00 | 0.00 | 0.00 | 70 | 1016.5 |
| 20260504041212 | 55 | 165 | 0.0 | 2.6 | 0.00 | 0.00 | 0.00 | 70 | 1016.5 |
| 20260504041119 | 55 | 165 | 0.0 | 2.6 | 0.00 | 0.00 | 0.00 | 70 | 1016.5 |
| 20260504041010 | 55 | 165 | 0.0 | 3.5 | 0.00 | 0.00 | 0.00 | 70 | 1016.5 |
| 20260504040918 | 55 | 165 | 0.9 | 3.5 | 0.00 | 0.00 | 0.00 | 70 | 1016.4 |
| 20260504040825 | 55 | 165 | 0.9 | 3.5 | 0.00 | 0.00 | 0.00 | 70 | 1016.4 |
| 20260504040733 | 56 | 165 | 0.9 | 3.5 | 0.00 | 0.00 | 0.00 | 70 | 1016.4 |
| 20260504040618 | 56 | 165 | 1.7 | 3.5 | 0.00 | 0.00 | 0.00 | 70 | 1016.4 |
| 20260504040552 | 56 | 163 | 1.7 | 3.5 | 0.00 | 0.00 | 0.00 | 70 | 1016.4 |
| 20260504040327 | 56 | 194 | 2.6 | 3.5 | 0.00 | 0.00 | 0.00 | 69 | 1016.5 |
| 20260504040215 | 56 | 184 | 1.7 | 3.5 | 0.00 | 0.00 | 0.00 | 69 | 1016.5 |
| 20260504040143 | 56 | 181 | 1.7 | 3.5 | 0.00 | 0.00 | 0.00 | 69 | 1016.5 |
| 20260504040010 | 56 | 178 | 1.7 | 3.5 | 0.00 | 0.00 | 0.00 | 69 | 1016.5 |
| 20260504035918 | 56 | 163 | 1.7 | 3.5 | 0.00 | 0.00 | 0.00 | 69 | 1016.5 |
| 20260504035810 | 56 | 171 | 1.7 | 3.5 | 0.00 | 0.00 | 0.00 | 69 | 1016.6 |
| 20260504035719 | 56 | 175 | 1.7 | 3.5 | 0.00 | 0.00 | 0.00 | 69 | 1016.5 |
| 20260504035647 | 56 | 170 | 1.7 | 3.5 | 0.00 | 0.00 | 0.00 | 69 | 1016.5 |
| 20260504035533 | 56 | 178 | 1.7 | 3.5 | 0.00 | 0.00 | 0.00 | 69 | 1016.5 |
| 20260504035419 | 56 | 168 | 1.7 | 3.5 | 0.00 | 0.00 | 0.00 | 69 | 1016.5 |
| 20260504035327 | 56 | 173 | 1.7 | 3.5 | 0.00 | 0.00 | 0.00 | 69 | 1016.5 |
| 20260504035235 | 56 | 180 | 1.7 | 3.5 | 0.00 | 0.00 | 0.00 | 69 | 1016.6 |
| 20260504035146 | 56 | 175 | 2.6 | 3.5 | 0.00 | 0.00 | 0.00 | 69 | 1016.6 |
| 20260504035116 | 56 | 180 | 2.6 | 4.3 | 0.00 | 0.00 | 0.00 | 69 | 1016.6 |
| 20260504034849 | 56 | 180 | 2.6 | 5.2 | 0.00 | 0.00 | 0.00 | 68 | 1016.6 |
| 20260504034715 | 56 | 177 | 2.6 | 5.2 | 0.00 | 0.00 | 0.00 | 69 | 1016.5 |
| 20260504034643 | 56 | 176 | 2.6 | 5.2 | 0.00 | 0.00 | 0.00 | 69 | 1016.5 |
| 20260504034514 | 56 | 167 | 2.6 | 5.2 | 0.00 | 0.00 | 0.00 | 68 | 1016.6 |
| 20260504034421 | 56 | 174 | 2.6 | 5.2 | 0.00 | 0.00 | 0.00 | 68 | 1016.6 |
| 20260504034328 | 56 | 169 | 2.6 | 5.2 | 0.00 | 0.00 | 0.00 | 68 | 1016.5 |
| 20260504034215 | 56 | 180 | 2.6 | 5.2 | 0.00 | 0.00 | 0.00 | 68 | 1016.7 |
| 20260504034124 | 56 | 186 | 2.6 | 4.3 | 0.00 | 0.00 | 0.00 | 68 | 1016.7 |
| 20260504034012 | 56 | 177 | 2.6 | 4.3 | 0.00 | 0.00 | 0.00 | 68 | 1016.7 |
| 20260504033945 | 56 | 166 | 2.6 | 4.3 | 0.00 | 0.00 | 0.00 | 68 | 1016.7 |
| 20260504033811 | 56 | 182 | 2.6 | 4.3 | 0.00 | 0.00 | 0.00 | 69 | 1016.7 |
| 20260504033718 | 56 | 159 | 2.6 | 4.3 | 0.00 | 0.00 | 0.00 | 69 | 1016.8 |
| 20260504033627 | 56 | 161 | 2.6 | 4.3 | 0.00 | 0.00 | 0.00 | 68 | 1016.8 |
| 20260504033557 | 56 | 171 | 2.6 | 5.2 | 0.00 | 0.00 | 0.00 | 68 | 1016.7 |
| 20260504033314 | 56 | 161 | 2.6 | 5.2 | 0.00 | 0.00 | 0.00 | 68 | 1016.7 |
| 20260504033221 | 56 | 184 | 3.5 | 5.2 | 0.00 | 0.00 | 0.00 | 68 | 1016.7 |
| 20260504033127 | 56 | 173 | 2.6 | 4.3 | 0.00 | 0.00 | 0.00 | 69 | 1016.7 |
| 20260504033014 | 55 | 169 | 2.6 | 4.3 | 0.00 | 0.00 | 0.00 | 68 | 1016.7 |
| 20260504032921 | 55 | 178 | 2.6 | 4.3 | 0.00 | 0.00 | 0.00 | 68 | 1016.7 |
| 20260504032813 | 55 | 183 | 2.6 | 4.3 | 0.00 | 0.00 | 0.00 | 68 | 1016.8 |
| 20260504032720 | 55 | 181 | 2.6 | 4.3 | 0.00 | 0.00 | 0.00 | 68 | 1016.8 |
| 20260504032648 | 55 | 162 | 2.6 | 4.3 | 0.00 | 0.00 | 0.00 | 69 | 1016.8 |
| 20260504032513 | 55 | 160 | 2.6 | 4.3 | 0.00 | 0.00 | 0.00 | 69 | 1016.9 |
| 20260504032440 | 55 | 184 | 2.6 | 4.3 | 0.00 | 0.00 | 0.00 | 69 | 1016.9 |
| 20260504032326 | 55 | 166 | 2.6 | 4.3 | 0.00 | 0.00 | 0.00 | 69 | 1016.9 |
| 20260504032214 | 55 | 171 | 1.7 | 3.5 | 0.00 | 0.00 | 0.00 | 69 | 1017.0 |
| 20260504032125 | 55 | 175 | 1.7 | 3.5 | 0.00 | 0.00 | 0.00 | 70 | 1017.0 |
| 20260504032055 | 55 | 155 | 1.7 | 3.5 | 0.00 | 0.00 | 0.00 | 71 | 1016.9 |
| 20260504031809 | 55 | 174 | 1.7 | 3.5 | 0.00 | 0.00 | 0.00 | 71 | 1017.0 |
| 20260504031736 | 55 | 173 | 1.7 | 4.3 | 0.00 | 0.00 | 0.00 | 72 | 1017.0 |
| 20260504031622 | 55 | 159 | 1.7 | 4.3 | 0.00 | 0.00 | 0.00 | 72 | 1017.0 |
| 20260504031514 | 55 | 159 | 1.7 | 4.3 | 0.00 | 0.00 | 0.00 | 73 | 1017.0 |
| 20260504031421 | 55 | 150 | 1.7 | 2.6 | 0.00 | 0.00 | 0.00 | 72 | 1017.0 |
| 20260504031329 | 55 | 146 | 1.7 | 2.6 | 0.00 | 0.00 | 0.00 | 73 | 1017.0 |
| 20260504031237 | 55 | 143 | 1.7 | 2.6 | 0.00 | 0.00 | 0.00 | 73 | 1017.0 |
| 20260504031122 | 55 | 148 | 1.7 | 2.6 | 0.00 | 0.00 | 0.00 | 73 | 1017.0 |
| 20260504031015 | 55 | 126 | 1.7 | 2.6 | 0.00 | 0.00 | 0.00 | 74 | 1017.1 |
| 20260504030923 | 55 | 126 | 0.9 | 1.7 | 0.00 | 0.00 | 0.00 | 73 | 1017.1 |
| 20260504030810 | 55 | 126 | 0.9 | 1.7 | 0.00 | 0.00 | 0.00 | 72 | 1017.1 |
| 20260504030719 | 55 | 126 | 0.9 | 1.7 | 0.00 | 0.00 | 0.00 | 72 | 1017.1 |
| 20260504030626 | 55 | 126 | 0.0 | 1.7 | 0.00 | 0.00 | 0.00 | 72 | 1017.1 |
| 20260504030601 | 56 | 126 | 0.0 | 0.9 | 0.00 | 0.00 | 0.00 | 72 | 1017.0 |
| 20260504030314 | 56 | 126 | 0.0 | 0.0 | 0.00 | 0.00 | 0.00 | 74 | 1017.2 |
| 20260504030222 | 56 | 126 | 0.0 | 0.0 | 0.00 | 0.00 | 0.00 | 75 | 1017.2 |
| 20260504030110 | 56 | 126 | 0.0 | 0.0 | 0.00 | 0.00 | 0.00 | 75 | 1017.1 |
| 20260504030017 | 56 | 126 | 0.0 | 0.0 | 0.00 | 0.00 | 0.00 | 75 | 1017.2 |
| 20260504025910 | 56 | 126 | 0.0 | 0.0 | 0.00 | 0.00 | 0.00 | 75 | 1017.1 |
| 20260504025816 | 56 | 126 | 0.0 | 0.0 | 0.00 | 0.00 | 0.00 | 76 | 1017.2 |
| 20260504025725 | 56 | 126 | 0.0 | 0.0 | 0.00 | 0.00 | 0.00 | 77 | 1017.2 |
| 20260504025613 | 56 | 126 | 0.0 | 0.0 | 0.00 | 0.00 | 0.00 | 75 | 1017.1 |
| 20260504025520 | 56 | 126 | 0.0 | 0.0 | 0.00 | 0.00 | 0.00 | 76 | 1017.2 |
| 20260504025447 | 56 | 126 | 0.0 | 0.0 | 0.00 | 0.00 | 0.00 | 77 | 1017.2 |
| 20260504025317 | 56 | 126 | 0.0 | 0.0 | 0.00 | 0.00 | 0.00 | 77 | 1017.1 |
| 20260504025225 | 56 | 126 | 0.0 | 0.0 | 0.00 | 0.00 | 0.00 | 77 | 1017.1 |
| 20260504025132 | 56 | 126 | 0.0 | 0.0 | 0.00 | 0.00 | 0.00 | 76 | 1017.2 |
| 20260504025102 | 56 | 126 | 0.0 | 0.0 | 0.00 | 0.00 | 0.00 | 72 | 1017.2 |
| 20260504024820 | 56 | 126 | 0.0 | 0.0 | 0.00 | 0.00 | 0.00 | 68 | 1017.1 |
| 20260504024726 | 56 | 126 | 0.0 | 0.0 | 0.00 | 0.00 | 0.00 | 68 | 1017.1 |
| 20260504024615 | 56 | 126 | 0.0 | 0.0 | 0.00 | 0.00 | 0.00 | 68 | 1017.1 |
| 20260504024522 | 56 | 126 | 0.0 | 0.0 | 0.00 | 0.00 | 0.00 | 69 | 1017.1 |
| 20260504024429 | 56 | 126 | 0.0 | 0.0 | 0.00 | 0.00 | 0.00 | 69 | 1017.1 |
| 20260504024316 | 56 | 126 | 0.0 | 0.0 | 0.00 | 0.00 | 0.00 | 69 | 1017.1 |
| 20260504024227 | 56 | 126 | 0.0 | 0.0 | 0.00 | 0.00 | 0.00 | 69 | 1017.1 |
| 20260504024115 | 56 | 126 | 0.0 | 0.0 | 0.00 | 0.00 | 0.00 | 68 | 1017.0 |
| 20260504024022 | 56 | 126 | 0.0 | 0.0 | 0.00 | 0.00 | 0.00 | 68 | 1017.0 |
| 20260504023909 | 56 | 126 | 0.0 | 0.0 | 0.00 | 0.00 | 0.00 | 68 | 1017.0 |
| 20260504023817 | 56 | 126 | 0.0 | 0.0 | 0.00 | 0.00 | 0.00 | 68 | 1016.9 |
| 20260504023709 | 56 | 126 | 0.0 | 0.0 | 0.00 | 0.00 | 0.00 | 68 | 1017.0 |
| 20260504023637 | 56 | 126 | 0.0 | 0.0 | 0.00 | 0.00 | 0.00 | 68 | 1017.0 |
| 20260504023546 | 56 | 126 | 0.0 | 0.0 | 0.00 | 0.00 | 0.00 | 68 | 1017.0 |
| 20260504023319 | 56 | 126 | 0.0 | 0.0 | 0.00 | 0.00 | 0.00 | 69 | 1017.0 |
| 20260504023227 | 56 | 126 | 0.0 | 0.0 | 0.00 | 0.00 | 0.00 | 69 | 1017.0 |
| 20260504023118 | 57 | 126 | 0.0 | 0.0 | 0.00 | 0.00 | 0.00 | 68 | 1016.9 |
| 20260504023026 | 57 | 126 | 0.0 | 0.0 | 0.00 | 0.00 | 0.00 | 68 | 1016.9 |
| 20260504022914 | 57 | 126 | 0.0 | 0.0 | 0.00 | 0.00 | 0.00 | 68 | 1017.0 |
| 20260504022821 | 57 | 126 | 0.0 | 0.0 | 0.00 | 0.00 | 0.00 | 67 | 1017.0 |
| 20260504022729 | 57 | 126 | 0.0 | 0.0 | 0.00 | 0.00 | 0.00 | 67 | 1017.1 |
| 20260504022620 | 57 | 126 | 0.0 | 0.0 | 0.00 | 0.00 | 0.00 | 67 | 1017.0 |
| 20260504022527 | 57 | 126 | 0.0 | 0.0 | 0.00 | 0.00 | 0.00 | 67 | 1017.0 |
| 20260504022415 | 57 | 126 | 0.0 | 0.0 | 0.00 | 0.00 | 0.00 | 67 | 1017.0 |
| 20260504022322 | 57 | 126 | 0.0 | 0.0 | 0.00 | 0.00 | 0.00 | 67 | 1017.0 |
| 20260504022228 | 57 | 126 | 0.0 | 0.0 | 0.00 | 0.00 | 0.00 | 67 | 1017.1 |
| 20260504022135 | 57 | 126 | 0.0 | 0.0 | 0.00 | 0.00 | 0.00 | 66 | 1017.0 |
| 20260504022110 | 57 | 126 | 0.0 | 0.0 | 0.00 | 0.00 | 0.00 | 66 | 1017.0 |
| 20260504021822 | 57 | 126 | 0.0 | 0.0 | 0.00 | 0.00 | 0.00 | 65 | 1016.9 |
| 20260504021709 | 58 | 126 | 0.0 | 0.0 | 0.00 | 0.00 | 0.00 | 65 | 1016.9 |
| 20260504021616 | 58 | 126 | 0.0 | 0.0 | 0.00 | 0.00 | 0.00 | 65 | 1016.9 |
| 20260504021544 | 58 | 126 | 0.0 | 0.0 | 0.00 | 0.00 | 0.00 | 65 | 1016.9 |
| 20260504021414 | 58 | 126 | 0.0 | 0.0 | 0.00 | 0.00 | 0.00 | 66 | 1017.0 |
| 20260504021321 | 58 | 126 | 0.0 | 0.0 | 0.00 | 0.00 | 0.00 | 66 | 1017.0 |
| 20260504021209 | 58 | 126 | 0.0 | 0.0 | 0.00 | 0.00 | 0.00 | 66 | 1016.9 |
| 20260504021117 | 58 | 126 | 0.0 | 0.0 | 0.00 | 0.00 | 0.00 | 66 | 1017.0 |
| 20260504021025 | 58 | 126 | 0.0 | 0.0 | 0.00 | 0.00 | 0.00 | 65 | 1017.0 |
| 20260504020913 | 58 | 126 | 0.0 | 0.0 | 0.00 | 0.00 | 0.00 | 65 | 1016.9 |
| 20260504020823 | 58 | 126 | 0.0 | 0.0 | 0.00 | 0.00 | 0.00 | 64 | 1016.9 |
| 20260504020710 | 58 | 126 | 0.0 | 0.0 | 0.00 | 0.00 | 0.00 | 64 | 1016.9 |
| 20260504020637 | 58 | 126 | 0.0 | 0.0 | 0.00 | 0.00 | 0.00 | 63 | 1016.8 |
| 20260504020547 | 58 | 126 | 0.0 | 0.0 | 0.00 | 0.00 | 0.00 | 63 | 1016.8 |
| 20260504020321 | 59 | 126 | 0.0 | 0.0 | 0.00 | 0.00 | 0.00 | 63 | 1016.8 |
| 20260504020214 | 59 | 126 | 0.0 | 0.0 | 0.00 | 0.00 | 0.00 | 62 | 1016.8 |
| 20260504020121 | 59 | 126 | 0.0 | 0.0 | 0.00 | 0.00 | 0.00 | 62 | 1016.8 |
| 20260504020027 | 59 | 126 | 0.0 | 0.0 | 0.00 | 0.00 | 0.00 | 62 | 1016.8 |
| 20260504015915 | 59 | 126 | 0.0 | 0.0 | 0.00 | 0.00 | 0.00 | 62 | 1016.7 |
| 20260504015823 | 59 | 126 | 0.0 | 0.0 | 0.00 | 0.00 | 0.00 | 61 | 1016.7 |
| 20260504015714 | 59 | 126 | 0.0 | 0.0 | 0.00 | 0.00 | 0.00 | 61 | 1016.8 |
| 20260504015622 | 59 | 126 | 0.0 | 0.0 | 0.00 | 0.00 | 0.00 | 61 | 1016.8 |
| 20260504015509 | 59 | 126 | 0.0 | 0.0 | 0.00 | 0.00 | 0.00 | 61 | 1016.8 |
| 20260504015417 | 59 | 126 | 0.0 | 0.0 | 0.00 | 0.00 | 0.00 | 61 | 1016.8 |
| 20260504015323 | 59 | 126 | 0.0 | 0.0 | 0.00 | 0.00 | 0.00 | 60 | 1016.8 |
| 20260504015214 | 59 | 126 | 0.0 | 0.0 | 0.00 | 0.00 | 0.00 | 60 | 1016.8 |
| 20260504015142 | 60 | 126 | 0.0 | 0.0 | 0.00 | 0.00 | 0.00 | 60 | 1016.8 |
| 20260504015051 | 60 | 126 | 0.0 | 0.0 | 0.00 | 0.00 | 0.00 | 60 | 1016.7 |
| 20260504014826 | 60 | 126 | 0.0 | 0.0 | 0.00 | 0.00 | 0.00 | 61 | 1016.7 |
| 20260504014713 | 60 | 126 | 0.0 | 0.0 | 0.00 | 0.00 | 0.00 | 61 | 1016.8 |
| 20260504014641 | 60 | 126 | 0.0 | 0.0 | 0.00 | 0.00 | 0.00 | 60 | 1016.7 |
| 20260504014532 | 60 | 126 | 0.0 | 0.0 | 0.00 | 0.00 | 0.00 | 61 | 1016.6 |
| 20260504014420 | 60 | 126 | 0.0 | 0.0 | 0.00 | 0.00 | 0.00 | 61 | 1016.7 |
| 20260504014327 | 60 | 126 | 0.0 | 0.0 | 0.00 | 0.00 | 0.00 | 61 | 1016.7 |
| 20260504014214 | 60 | 126 | 0.0 | 0.0 | 0.00 | 0.00 | 0.00 | 60 | 1016.5 |
| 20260504014121 | 60 | 126 | 0.0 | 0.0 | 0.00 | 0.00 | 0.00 | 60 | 1016.5 |
| 20260504014011 | 60 | 126 | 0.0 | 0.0 | 0.00 | 0.00 | 0.00 | 59 | 1016.4 |
| 20260504013939 | 61 | 126 | 0.0 | 0.0 | 0.00 | 0.00 | 0.00 | 58 | 1016.5 |
| 20260504013826 | 61 | 126 | 0.0 | 0.0 | 0.00 | 0.00 | 0.00 | 57 | 1016.5 |
| 20260504013734 | 61 | 126 | 0.0 | 0.0 | 0.00 | 0.00 | 0.00 | 57 | 1016.4 |
| 20260504013621 | 61 | 126 | 0.0 | 0.0 | 0.00 | 0.00 | 0.00 | 57 | 1016.4 |
| 20260504013552 | 61 | 126 | 0.0 | 0.0 | 0.00 | 0.00 | 0.00 | 56 | 1016.3 |
| 20260504013330 | 61 | 126 | 0.0 | 0.0 | 0.00 | 0.00 | 0.00 | 56 | 1016.3 |
| 20260504013236 | 61 | 126 | 0.0 | 0.0 | 0.00 | 0.00 | 0.00 | 55 | 1016.2 |
| 20260504013143 | 61 | 126 | 0.0 | 0.0 | 0.00 | 0.00 | 0.00 | 54 | 1016.2 |
| 20260504013028 | 61 | 126 | 0.0 | 0.0 | 0.00 | 0.00 | 0.00 | 54 | 1016.2 |
| 20260504012917 | 62 | 126 | 0.0 | 0.0 | 0.00 | 0.00 | 0.00 | 54 | 1016.3 |
| 20260504012825 | 62 | 126 | 0.0 | 0.0 | 0.00 | 0.00 | 0.00 | 54 | 1016.3 |
| 20260504012716 | 62 | 126 | 0.0 | 0.0 | 0.00 | 0.00 | 0.00 | 54 | 1016.2 |
| 20260504012624 | 62 | 126 | 0.0 | 0.9 | 0.00 | 0.00 | 0.00 | 53 | 1016.2 |
| 20260504012511 | 62 | 126 | 0.0 | 0.9 | 0.00 | 0.00 | 0.00 | 53 | 1016.1 |
| 20260504012419 | 62 | 126 | 0.0 | 0.9 | 0.00 | 0.00 | 0.00 | 53 | 1016.1 |
| 20260504012327 | 62 | 126 | 0.0 | 0.9 | 0.00 | 0.00 | 0.00 | 53 | 1016.1 |
| 20260504012214 | 62 | 126 | 0.0 | 0.9 | 0.00 | 0.00 | 0.00 | 53 | 1016.1 |
| 20260504012125 | 62 | 126 | 0.0 | 0.9 | 0.00 | 0.00 | 0.00 | 53 | 1016.1 |
| 20260504012056 | 62 | 126 | 0.0 | 1.7 | 0.00 | 0.00 | 0.00 | 53 | 1016.0 |
| 20260504011809 | 62 | 126 | 0.0 | 1.7 | 0.00 | 0.00 | 0.00 | 52 | 1016.0 |
| 20260504011717 | 62 | 126 | 0.0 | 1.7 | 0.00 | 0.00 | 0.00 | 52 | 1016.0 |
| 20260504011643 | 62 | 126 | 0.0 | 1.7 | 0.00 | 0.00 | 0.00 | 52 | 1016.0 |
| 20260504011513 | 62 | 126 | 0.9 | 1.7 | 0.00 | 0.00 | 0.00 | 52 | 1016.0 |
| 20260504011441 | 62 | 126 | 0.9 | 1.7 | 0.00 | 0.00 | 0.00 | 51 | 1016.0 |
| 20260504011328 | 62 | 126 | 0.9 | 1.7 | 0.00 | 0.00 | 0.00 | 51 | 1016.0 |
| 20260504011214 | 62 | 126 | 0.9 | 1.7 | 0.00 | 0.00 | 0.00 | 51 | 1016.0 |
| 20260504011122 | 62 | 126 | 1.7 | 1.7 | 0.00 | 0.00 | 0.00 | 52 | 1016.0 |
| 20260504011014 | 62 | 126 | 1.7 | 1.7 | 0.00 | 0.00 | 0.00 | 51 | 1016.0 |
| 20260504010922 | 63 | 126 | 0.9 | 1.7 | 0.00 | 0.00 | 0.00 | 51 | 1016.0 |
| 20260504010809 | 63 | 126 | 1.7 | 1.7 | 0.00 | 0.00 | 0.00 | 51 | 1015.9 |
| 20260504010736 | 63 | 126 | 0.9 | 1.7 | 0.00 | 0.00 | 0.00 | 50 | 1016.0 |
| 20260504010642 | 63 | 126 | 0.9 | 1.7 | 0.00 | 0.00 | 0.00 | 47 | 1016.0 |
| 20260504010551 | 63 | 126 | 0.9 | 1.7 | 0.00 | 0.00 | 0.00 | 47 | 1016.0 |
| 20260504010328 | 63 | 226 | 0.9 | 1.7 | 0.00 | 0.00 | 0.00 | 46 | 1016.0 |
| 20260504010215 | 63 | 226 | 1.7 | 1.7 | 0.00 | 0.00 | 0.00 | 47 | 1016.0 |
| 20260504010122 | 63 | 226 | 1.7 | 1.7 | 0.00 | 0.00 | 0.00 | 47 | 1016.0 |
| 20260504010010 | 63 | 229 | 0.9 | 1.7 | 0.00 | 0.00 | 0.00 | 47 | 1016.0 |
| 20260504005918 | 63 | 229 | 0.9 | 1.7 | 0.00 | 0.00 | 0.00 | 47 | 1016.0 |
| 20260504005810 | 63 | 229 | 0.9 | 1.7 | 0.00 | 0.00 | 0.00 | 47 | 1016.0 |
| 20260504005716 | 63 | 229 | 0.9 | 1.7 | 0.00 | 0.00 | 0.00 | 47 | 1016.0 |
| 20260504005644 | 63 | 229 | 0.9 | 1.7 | 0.00 | 0.00 | 0.00 | 47 | 1016.0 |
| 20260504005530 | 63 | 229 | 0.9 | 1.7 | 0.00 | 0.00 | 0.00 | 47 | 1015.9 |
| 20260504005418 | 64 | 229 | 0.0 | 2.6 | 0.00 | 0.00 | 0.00 | 47 | 1016.0 |
| 20260504005344 | 64 | 229 | 0.0 | 2.6 | 0.00 | 0.00 | 0.00 | 46 | 1016.0 |
| 20260504005228 | 64 | 229 | 0.0 | 2.6 | 0.00 | 0.00 | 0.00 | 45 | 1016.0 |
| 20260504005155 | 64 | 229 | 0.9 | 2.6 | 0.00 | 0.00 | 0.00 | 46 | 1016.0 |
| 20260504005110 | 64 | 229 | 0.9 | 2.6 | 0.00 | 0.00 | 0.00 | 45 | 1016.0 |
| 20260504004843 | 64 | 229 | 1.7 | 2.6 | 0.00 | 0.00 | 0.00 | 45 | 1016.1 |
| 20260504004709 | 64 | 229 | 0.9 | 2.6 | 0.00 | 0.00 | 0.00 | 45 | 1016.0 |
| 20260504004616 | 64 | 246 | 0.9 | 2.6 | 0.00 | 0.00 | 0.00 | 45 | 1016.0 |
| 20260504004524 | 64 | 265 | 0.9 | 1.7 | 0.00 | 0.00 | 0.00 | 45 | 1016.0 |
| 20260504004416 | 64 | 265 | 0.9 | 1.7 | 0.00 | 0.00 | 0.00 | 45 | 1016.0 |
| 20260504004322 | 64 | 265 | 0.0 | 0.9 | 0.00 | 0.00 | 0.00 | 44 | 1016.0 |
| 20260504004209 | 64 | 265 | 0.0 | 0.9 | 0.00 | 0.00 | 0.00 | 45 | 1015.9 |
| 20260504004116 | 65 | 265 | 0.0 | 0.9 | 0.00 | 0.00 | 0.00 | 44 | 1016.0 |
| 20260504004024 | 65 | 265 | 0.0 | 0.9 | 0.00 | 0.00 | 0.00 | 44 | 1016.0 |
| 20260504003916 | 65 | 265 | 0.0 | 0.9 | 0.00 | 0.00 | 0.00 | 44 | 1016.0 |
| 20260504003824 | 65 | 265 | 0.0 | 0.9 | 0.00 | 0.00 | 0.00 | 44 | 1016.0 |
| 20260504003712 | 65 | 265 | 0.0 | 1.7 | 0.00 | 0.00 | 0.00 | 44 | 1016.0 |
| 20260504003554 | 65 | 265 | 0.0 | 1.7 | 0.00 | 0.00 | 0.00 | 44 | 1015.9 |
| 20260504003328 | 65 | 265 | 0.0 | 1.7 | 0.00 | 0.00 | 0.00 | 43 | 1015.8 |
| 20260504003214 | 65 | 265 | 0.9 | 1.7 | 0.00 | 0.00 | 0.00 | 43 | 1015.9 |
| 20260504003121 | 65 | 265 | 0.9 | 1.7 | 0.00 | 0.00 | 0.00 | 43 | 1015.9 |
| 20260504003028 | 65 | 265 | 0.9 | 1.7 | 0.00 | 0.00 | 0.00 | 44 | 1015.9 |
| 20260504002916 | 65 | 265 | 0.9 | 1.7 | 0.00 | 0.00 | 0.00 | 43 | 1016.0 |
| 20260504002827 | 65 | 269 | 0.0 | 1.7 | 0.00 | 0.00 | 0.00 | 43 | 1016.0 |
| 20260504002715 | 65 | 270 | 0.0 | 2.6 | 0.00 | 0.00 | 0.00 | 43 | 1016.0 |
| 20260504002623 | 65 | 270 | 0.9 | 2.6 | 0.00 | 0.00 | 0.00 | 44 | 1016.0 |
| 20260504002511 | 66 | 270 | 0.9 | 2.6 | 0.00 | 0.00 | 0.00 | 44 | 1016.0 |
| 20260504002419 | 66 | 280 | 0.0 | 2.6 | 0.00 | 0.00 | 0.00 | 43 | 1016.1 |
| 20260504002310 | 66 | 280 | 0.0 | 2.6 | 0.00 | 0.00 | 0.00 | 43 | 1016.1 |
| 20260504002219 | 66 | 280 | 0.9 | 2.6 | 0.00 | 0.00 | 0.00 | 43 | 1016.1 |
| 20260504002125 | 66 | 280 | 0.9 | 2.6 | 0.00 | 0.00 | 0.00 | 42 | 1016.1 |
| 20260504002055 | 66 | 280 | 0.9 | 2.6 | 0.00 | 0.00 | 0.00 | 43 | 1016.1 |
| 20260504001809 | 66 | 285 | 0.9 | 2.6 | 0.00 | 0.00 | 0.00 | 43 | 1016.2 |
| 20260504001720 | 66 | 285 | 0.9 | 2.6 | 0.00 | 0.00 | 0.00 | 42 | 1016.2 |
| 20260504001627 | 66 | 282 | 1.7 | 2.6 | 0.00 | 0.00 | 0.00 | 42 | 1016.1 |
| 20260504001514 | 66 | 315 | 1.7 | 2.6 | 0.00 | 0.00 | 0.00 | 42 | 1016.1 |
| 20260504001441 | 66 | 322 | 0.9 | 2.6 | 0.00 | 0.00 | 0.00 | 42 | 1016.1 |
| 20260504001327 | 66 | 297 | 0.9 | 2.6 | 0.00 | 0.00 | 0.00 | 41 | 1016.2 |
| 20260504001215 | 66 | 330 | 0.9 | 2.6 | 0.00 | 0.00 | 0.00 | 41 | 1016.2 |
| 20260504001126 | 67 | 330 | 1.7 | 3.5 | 0.00 | 0.00 | 0.00 | 41 | 1016.2 |
| 20260504001014 | 67 | 298 | 1.7 | 3.5 | 0.00 | 0.00 | 0.00 | 41 | 1016.2 |
| 20260504000921 | 67 | 301 | 1.7 | 3.5 | 0.00 | 0.00 | 0.00 | 41 | 1016.2 |
| 20260504000827 | 67 | 283 | 0.9 | 4.3 | 0.00 | 0.00 | 0.00 | 41 | 1016.2 |
| 20260504000714 | 67 | 280 | 0.9 | 4.3 | 0.00 | 0.00 | 0.00 | 41 | 1016.2 |
| 20260504000642 | 67 | 279 | 1.7 | 4.3 | 0.00 | 0.00 | 0.00 | 41 | 1016.2 |
| 20260504000555 | 67 | 288 | 1.7 | 4.3 | 0.00 | 0.00 | 0.00 | 41 | 1016.2 |